GFSNGP_500_spd_069.txt.gz
Wind_Speed
36 37 35 23 30 32 34 36 35 36 38 33 35 32 32 30 28 31 33 34 36 35 34 32 32 30 28 27 29 30 29 28 25 25 27 26 28 29 30 30 29 30 30 29
19 33 38 39 38 35 34 33 34 34 35 30 29 36 32 30 30 31 39 40 44 41 38 35 35 34 34 32 32 35 34 31 32 31 31 32 33 32 33 34 33 32 32 33
19 17 21 25 22 24 25 28 31 28 28 27 29 26 29 25 26 28 32 42 42 43 42 39 38 39 38 37 38 37 36 34 33 34 34 33 34 36 35 34 35 34 34 36
26 21 19 14 20 16 12 13 17 23 24 24 22 22 23 25 25 25 26 29 45 47 45 45 44 44 43 43 43 42 42 41 41 39 36 36 34 34 35 35 36 38 40 41
27 33 22 23 15 16 16 21 22 23 23 22 24 26 27 28 27 25 24 23 29 47 46 46 45 44 44 45 46 47 46 45 47 44 44 42 40 36 37 38 39 38 39 40
37 29 27 22 25 24 28 25 25 24 24 25 22 26 34 30 30 32 30 27 27 29 33 50 49 44 44 46 45 49 49 51 51 46 47 44 44 45 45 40 39 38 40 42
36 34 30 32 28 24 29 28 27 33 34 33 31 32 31 33 33 35 36 36 35 33 34 36 36 41 44 44 46 47 51 52 53 55 53 49 48 49 50 51 49 50 47 49
38 38 38 40 40 38 34 35 36 35 34 35 34 36 37 39 40 40 40 42 40 39 39 40 39 41 42 45 46 49 45 48 50 53 54 53 57 56 53 55 57 59 64 66
36 40 39 38 36 35 39 41 42 44 45 45 45 45 45 43 45 46 47 47 48 48 47 44 43 43 44 46 48 49 48 49 50 53 52 55 60 58 60 62 61 65 68 65
20 22 24 25 30 28 32 36 37 39 39 35 32 33 34 33 30 34 36 38 38 38 41 49 50 46 46 49 50 50 48 50 53 55 58 60 64 66 70 69 66 69 72 67
23 21 22 22 20 19 20 21 20 20 20 21 23 22 21 23 24 26 29 32 33 36 39 39 43 50 51 51 54 56 55 56 56 59 59 62 63 64 67 66 67 67 69 71
23 23 21 21 19 20 20 21 22 23 24 26 26 27 27 28 29 30 33 35 36 37 40 40 42 45 49 52 53 51 57 59 59 61 61 63 64 65 66 65 67 69 72 72
23 24 24 23 25 27 27 27 29 30 32 33 34 34 34 35 35 37 38 38 40 40 41 43 44 43 45 45 48 52 51 59 61 67 68 66 63 62 65 64 64 66 68 71
23 25 26 27 27 29 31 32 34 35 36 38 41 42 43 43 44 43 44 46 46 45 47 46 49 46 43 43 46 47 50 59 44 49 62 64 63 68 73 71 69 76 76 86
24 26 28 29 30 32 34 36 37 39 41 43 45 47 49 50 51 51 52 52 52 51 50 49 51 53 56 49 46 47 52 64 64 62 58 56 56 65 70 63 56 46 44 52
25 26 27 30 33 35 38 40 43 44 45 46 48 49 50 52 53 53 54 54 52 50 51 45 38 35 43 45 45 45 47 50 51 51 50 57 48 46 51 53 52 50 47 51
26 28 31 34 36 37 40 43 45 47 46 45 45 43 43 41 42 44 46 47 49 51 44 36 34 32 34 33 35 38 40 42 46 50 50 47 47 47 48 49 50 53 54 53
31 33 36 38 40 42 44 45 45 46 47 46 45 44 43 45 42 40 42 42 46 47 48 51 53 48 42 39 41 42 42 42 43 44 46 49 51 51 51 53 55 56 57 59
33 35 38 39 40 41 43 44 45 45 44 42 41 42 41 42 39 42 44 42 48 44 44 46 44 44 46 44 42 43 45 48 49 51 52 52 54 55 58 61 62 62 64 66
32 35 36 35 34 36 38 39 40 41 43 42 43 42 42 43 45 46 46 43 41 42 43 44 45 48 49 50 50 49 51 52 54 55 57 59 59 59 60 63 65 67 68 69
26 28 31 29 31 31 33 35 37 37 38 40 43 44 44 45 45 44 43 44 45 45 45 44 43 44 45 47 49 50 51 54 54 55 56 59 61 62 63 64 64 66 66 67
35 36 37 41 44 44 44 43 42 39 39 39 40 41 41 42 44 47 48 47 47 46 46 45 46 48 50 50 51 51 51 51 51 53 54 56 57 58 60 62 64 66 68 70
41 42 42 43 44 45 42 38 35 36 38 39 40 41 41 43 46 45 44 43 43 43 44 45 46 47 47 48 49 50 51 52 53 56 59 61 63 65 67 69 71 73 75 77
34 36 35 34 32 33 33 34 34 33 33 35 36 37 38 38 39 40 41 42 43 44 45 47 48 50 51 53 54 57 59 61 63 65 66 68 70 72 74 75 75 73 71 67
28 29 31 32 33 34 34 35 36 37 38 39 40 40 41 43 44 46 47 49 50 52 53 55 56 58 59 61 63 65 66 68 68 69 69 69 67 64 61 58 56 54 52 51
37 38 40 42 43 44 45 45 46 46 47 48 49 50 50 51 52 53 55 56 57 58 59 59 60 59 59 59 59 58 56 54 52 49 47 46 45 46 46 46 47 47 47 47
44 47 49 51 52 53 53 54 54 54 54 55 55 55 55 54 55 55 54 54 52 51 50 49 48 46 44 41 39 37 36 37 37 39 41 42 44 45 47 48 49 49 50 52

GFSNGP_500_spd_072.txt.gz
Wind_Speed
27 25 24 22 23 37 44 41 31 35 37 23 30 25 36 39 36 29 31 29 27 31 34 32 31 28 27 27 25 24 23 23 25 26 26 22 21 23 25 26 25 26 26 26
23 24 21 26 25 35 31 27 31 37 37 37 32 35 41 39 34 36 35 37 37 37 35 37 37 35 34 32 31 30 27 26 28 29 28 28 27 29 29 29 29 31 32 32
11 28 27 24 24 34 37 38 35 37 41 41 44 45 46 39 38 36 36 38 39 41 38 40 40 38 37 36 37 34 32 31 31 32 31 29 31 31 29 29 32 31 32 35
13 19 24 29 35 34 35 33 33 32 31 36 35 35 33 32 34 34 35 33 35 39 34 43 43 41 42 41 41 40 37 37 37 37 37 38 37 35 35 34 34 33 30 31
24 24 21 16 12 22 28 24 16 25 33 29 31 30 29 25 25 25 26 27 27 30 33 32 48 49 47 44 44 47 46 44 44 43 43 44 43 45 48 40 41 36 37 39
20 25 26 22 23 14 10 22 29 27 33 28 25 31 33 21 23 26 26 27 25 24 27 28 33 51 50 50 53 53 51 50 49 47 47 49 48 48 48 41 43 48 45 42
33 22 27 23 26 31 33 31 38 32 22 21 24 27 28 26 26 29 30 30 28 30 30 30 32 35 36 35 45 53 51 51 53 50 49 51 54 51 52 55 56 52 53 49
35 32 28 24 24 34 32 23 24 25 27 32 33 33 29 30 34 33 32 31 33 35 34 34 34 36 38 40 43 44 45 45 56 52 52 51 47 58 58 54 54 56 54 57
30 29 25 26 30 34 32 30 31 29 31 36 32 33 35 35 36 37 38 39 40 42 44 44 45 46 46 45 47 49 51 51 54 56 57 60 57 52 52 55 59 59 58 62
17 20 25 28 30 33 31 34 37 40 36 37 40 41 42 41 40 39 36 32 30 32 34 38 39 40 42 48 52 53 54 54 55 56 58 61 62 61 58 61 62 62 64 70
21 15 15 17 21 23 25 30 32 30 28 25 28 28 27 25 25 25 25 24 25 27 28 32 35 37 39 41 44 49 55 58 59 58 59 60 61 62 62 63 66 69 68 71
29 26 25 23 25 25 22 22 21 21 21 21 22 23 24 26 27 28 29 30 31 32 32 33 33 36 39 41 44 47 48 51 58 61 60 61 60 62 64 70 76 71 68 69
27 33 30 28 25 25 23 24 24 24 25 26 27 29 31 33 34 35 35 36 37 39 39 39 39 39 41 42 45 46 49 49 54 60 62 60 59 58 58 61 42 55 77 73
25 26 25 25 25 27 27 27 28 29 30 32 33 35 37 39 41 43 45 46 47 47 47 46 48 48 49 49 50 49 48 52 52 51 56 59 55 62 60 59 63 63 55 56
25 25 25 26 27 28 29 30 31 32 34 36 38 40 41 43 45 47 49 51 52 53 55 55 56 56 57 58 56 54 50 48 52 56 54 54 56 61 65 57 48 50 49 47
23 24 25 26 27 29 30 32 34 36 37 40 41 43 45 47 49 51 53 55 57 59 60 62 62 62 63 60 59 52 49 48 46 47 52 53 50 50 49 44 43 42 45 46
23 24 25 26 28 30 32 33 35 37 38 41 45 48 50 52 53 54 54 54 55 54 53 53 53 53 55 55 54 49 44 42 44 40 41 43 44 44 46 45 43 44 45 47
26 28 30 31 33 33 34 37 38 40 42 43 43 44 46 45 45 46 46 46 47 47 47 47 46 48 50 50 48 51 53 53 50 47 47 47 47 47 47 49 50 51 51 52
32 34 36 37 36 36 36 36 37 39 40 41 41 42 43 45 46 45 45 46 48 48 46 44 45 47 43 46 49 49 48 47 49 49 50 51 52 51 53 54 55 55 55 55
37 39 38 36 34 35 36 34 31 32 34 35 38 40 42 45 44 44 46 47 47 45 47 48 47 45 46 47 46 46 46 46 48 49 50 50 51 52 53 54 55 56 56 57
33 31 31 32 32 33 36 39 43 45 48 48 48 47 47 45 44 44 43 43 45 47 47 47 48 47 45 44 44 45 46 47 47 49 50 51 52 53 54 55 55 56 57 58
30 32 33 36 40 43 46 47 48 49 50 50 50 47 43 43 43 43 44 46 47 47 48 48 49 48 47 45 45 45 46 47 48 49 49 49 49 51 53 55 57 60 63 64
34 36 38 41 42 43 43 44 44 43 41 40 39 39 39 40 40 40 41 41 42 42 43 43 44 45 46 47 48 48 49 51 52 53 54 55 57 58 61 63 65 68 70 72
33 33 33 33 34 35 37 39 40 41 42 41 41 41 41 41 42 41 42 43 44 45 46 47 49 50 52 53 54 55 57 59 61 62 63 64 65 66 67 68 69 69 68 65
32 34 37 38 40 42 44 46 47 48 49 50 50 49 49 49 49 50 50 51 52 53 55 56 56 57 58 59 60 61 61 61 61 61 61 61 59 57 55 53 51 49 48 47
38 41 43 46 48 50 52 54 55 56 56 56 57 57 57 56 56 57 57 57 57 57 56 56 55 55 54 53 52 50 48 45 43 41 39 37 37 38 40 41 43 45 47 48
44 48 51 53 54 54 53 53 53 52 52 51 51 51 51 51 51 50 50 49 48 47 46 45 44 41 39 36 34 31 31 31 32 33 35 37 40 42 44 46 48 49 51 52

GFSNGP_500_spd_075.txt.gz
Wind_Speed
18 23 25 17 27 26 45 48 46 42 31 31 34 37 38 37 34 29 25 27 24 23 24 25 29 30 30 27 25 23 21 20 19 22 23 23 22 21 19 18 21 23 23 23
20 23 31 23 29 33 36 46 39 43 45 41 32 37 42 42 38 35 32 29 32 30 30 30 27 28 27 28 29 28 27 27 26 25 24 25 26 26 26 26 26 26 24 26
23 21 23 27 13 23 38 43 40 41 32 43 42 43 41 44 41 37 35 33 35 35 35 33 32 32 31 30 30 29 28 32 33 34 32 31 29 29 29 29 29 28 26 29
23 14 18 26 20 28 24 34 34 39 35 33 30 34 37 36 33 36 35 35 38 40 39 42 41 40 38 34 31 33 33 36 36 36 36 37 37 35 35 35 34 34 33 37
24 21 17 28 25 26 33 27 38 38 39 33 32 29 31 36 40 40 44 40 39 37 39 39 43 42 41 45 41 39 38 39 41 40 40 42 40 39 40 42 41 39 38 43
26 19 19 18 15 23 33 32 32 32 33 36 35 43 40 36 41 41 35 30 25 26 29 29 25 29 35 31 36 44 46 45 46 49 49 49 49 48 46 46 45 44 44 46
33 23 17 21 23 16 21 33 32 33 35 40 43 32 31 33 33 35 32 27 24 26 26 27 29 31 32 32 32 30 43 47 43 42 45 43 47 48 49 47 48 51 52 52
39 29 20 17 19 16 26 32 31 31 27 29 38 39 29 28 30 32 29 26 26 28 30 31 31 32 33 35 37 38 39 41 44 43 44 45 44 46 51 55 56 55 50 55
25 29 26 20 23 18 34 31 26 31 31 30 31 33 30 31 34 34 34 33 35 35 36 36 37 40 42 43 44 44 45 46 47 49 50 49 51 54 54 53 56 59 61 62
13 21 25 28 27 25 26 27 33 30 27 22 24 29 34 37 40 38 37 37 38 40 43 45 46 44 43 42 43 46 49 52 56 58 58 59 59 59 63 64 63 63 65 65
14 17 18 20 23 31 31 33 31 29 30 33 34 34 37 39 42 44 42 43 41 40 36 36 36 37 37 38 39 41 44 46 48 51 54 59 62 63 64 67 68 68 67 68
28 23 25 17 23 19 19 23 29 27 26 30 30 31 33 35 37 36 36 35 33 33 34 35 37 38 39 40 40 42 43 45 48 49 51 53 55 59 62 67 72 72 70 68
29 20 23 21 17 18 19 20 22 24 25 25 27 28 27 27 28 29 31 32 35 36 38 40 42 43 44 45 46 46 45 45 47 49 51 54 56 57 61 64 64 67 71 70
27 30 31 31 30 23 19 21 23 25 27 28 29 30 30 31 31 33 35 38 41 44 46 48 49 51 52 53 54 54 55 55 56 55 55 55 54 56 58 60 62 59 58 63
23 26 30 32 29 28 28 27 27 29 31 32 33 33 35 35 37 39 41 43 45 47 49 52 54 56 58 59 60 61 62 63 64 65 64 63 60 59 59 58 58 62 60 59
21 23 25 27 28 30 31 31 31 32 32 34 35 36 38 40 42 44 46 48 50 53 56 58 61 63 65 67 68 68 68 68 66 65 62 61 55 55 53 52 53 53 55 56
23 23 23 25 27 29 30 31 33 34 35 35 36 39 41 44 47 50 52 54 55 57 57 58 58 57 58 58 57 57 56 54 56 56 52 49 54 55 52 54 53 51 51 51
24 25 27 28 30 33 34 35 36 38 39 41 43 44 46 47 47 46 46 47 47 48 50 52 51 52 53 53 53 53 47 48 49 49 51 51 51 53 54 55 54 53 53 54
29 31 32 34 35 37 38 40 41 41 40 40 41 40 39 39 39 40 42 45 45 46 49 51 50 50 51 52 49 48 49 48 45 46 46 49 52 54 53 54 54 54 55 55
32 34 36 37 38 38 38 37 37 38 38 38 39 42 43 47 50 50 50 51 51 51 50 50 51 52 52 51 50 49 49 48 47 46 46 47 49 50 51 50 51 51 53 55
23 25 27 29 30 32 35 37 38 38 40 44 47 49 51 53 55 55 53 51 49 47 46 48 49 50 52 51 50 50 49 48 47 47 47 48 49 50 51 51 53 54 55 55
27 30 32 33 34 36 38 41 43 45 47 49 48 46 46 45 45 44 43 44 44 45 45 46 46 46 46 46 46 46 46 47 47 48 49 50 51 53 54 55 56 57 58 61
35 34 34 35 36 37 38 40 40 41 42 43 43 44 46 46 46 47 46 46 47 46 46 46 45 45 46 46 47 48 49 50 52 53 55 56 58 59 60 62 63 65 65 66
30 29 31 33 36 38 41 43 44 45 47 48 50 51 52 54 55 55 54 54 54 53 53 53 53 53 53 54 55 55 57 58 60 61 61 62 63 63 64 64 64 64 63 62
33 35 36 38 41 44 47 49 51 54 55 57 57 58 58 59 59 60 60 59 59 59 59 59 59 59 60 60 60 59 60 60 59 58 57 55 54 52 50 47 45 44 44 44
38 41 44 47 50 52 53 54 55 55 55 54 55 55 55 55 54 54 53 53 53 54 54 54 53 53 52 51 51 49 47 45 43 41 39 37 36 36 37 38 40 43 45 47
44 47 49 53 57 58 58 57 55 55 54 52 51 50 49 49 49 49 49 48 48 47 45 44 43 41 40 38 36 35 33 32 32 33 33 35 36 38 40 43 45 47 48 50

GFSNGP_500_spd_078.txt.gz
Wind_Speed
25 24 26 26 21 23 35 40 42 43 47 22 30 41 43 35 40 36 33 29 20 18 16 18 22 26 30 29 28 26 26 24 24 23 20 20 22 23 23 20 19 22 22 22
25 24 28 32 30 28 34 41 41 46 46 36 27 27 49 43 43 38 36 30 26 24 23 21 21 21 22 26 26 26 23 25 27 28 27 26 25 25 26 26 25 26 26 28
25 26 32 22 34 33 36 35 35 44 43 21 24 30 36 45 41 41 38 35 31 30 29 28 26 26 26 27 28 28 27 28 30 31 32 32 31 30 30 30 30 30 31 32
23 25 26 21 28 24 31 27 33 41 41 27 26 45 31 37 47 43 41 39 34 34 33 31 29 30 30 31 32 34 33 33 34 33 34 35 35 35 35 37 36 36 35 36
25 23 21 15 18 18 14 24 30 40 44 32 35 37 42 36 38 37 37 39 38 37 37 36 38 41 39 39 39 39 37 36 37 38 38 39 40 41 41 38 38 39 42 44
28 25 22 19 16 26 18 17 15 36 30 33 42 29 29 33 36 39 40 37 37 38 40 39 39 40 42 44 45 43 43 42 41 46 45 44 43 44 44 47 46 44 48 49
25 29 22 17 20 12 15 26 25 34 40 29 32 30 31 33 36 33 34 32 32 36 36 33 35 38 39 40 40 38 36 41 44 44 48 47 47 51 51 52 48 48 50 53
23 30 26 16 16 21 16 15 22 27 34 33 29 39 35 36 31 33 36 37 36 37 36 35 36 34 32 30 32 33 35 38 40 39 40 44 45 45 46 45 45 49 51 52
12 18 27 17 18 9 21 24 27 31 30 31 35 42 44 40 38 40 33 29 30 31 33 35 35 35 37 37 38 39 41 43 45 47 48 49 50 50 50 51 53 54 55 57
16 16 28 20 19 15 20 25 29 28 29 30 31 35 37 39 41 41 36 36 35 34 37 41 38 38 40 41 42 45 48 49 50 52 53 55 57 59 62 64 66 67 66 66
9 9 18 18 17 17 23 21 23 25 26 27 25 27 32 33 33 37 39 39 39 38 40 47 47 45 45 48 51 52 52 51 49 49 49 50 51 53 55 56 58 60 63 66
14 10 20 18 18 31 19 26 25 20 22 29 34 33 31 31 32 32 34 36 38 40 43 47 49 49 47 47 47 46 46 47 48 49 50 52 53 54 56 57 58 60 61 63
28 20 25 30 29 24 29 20 18 19 19 20 21 24 26 26 27 30 32 34 36 37 39 40 40 41 42 44 45 47 49 52 53 55 55 56 57 59 60 60 62 63 64 65
18 22 19 20 19 16 17 18 18 19 19 20 22 24 26 27 28 29 31 33 34 36 37 39 41 43 46 48 51 53 56 58 59 60 61 62 64 65 66 67 68 69 70 70
15 15 18 22 21 23 25 24 24 23 23 25 27 29 31 32 34 35 36 37 39 40 42 44 46 48 50 52 55 57 60 62 65 68 70 71 73 74 74 75 74 74 73 72
11 13 17 19 21 26 27 28 27 27 29 31 32 35 36 37 38 39 41 42 45 47 49 51 53 55 57 59 62 65 66 67 68 68 68 68 67 65 62 61 61 61 59 57
25 23 23 23 24 26 29 30 30 30 32 34 36 37 38 39 41 42 44 47 49 52 54 56 58 59 59 58 58 58 56 55 54 52 52 54 55 53 50 51 52 51 52 54
25 26 25 25 26 27 29 32 34 35 37 39 40 41 42 44 46 48 51 52 53 54 54 52 52 52 52 53 52 51 53 54 54 53 54 53 52 51 51 50 49 50 51 53
26 27 29 31 32 33 34 36 38 40 42 43 45 46 47 48 48 48 49 49 49 48 48 51 53 54 56 56 56 55 52 54 56 58 59 57 56 54 52 51 50 51 52 53
25 27 29 30 32 35 37 39 40 41 42 43 44 45 46 47 47 47 48 49 52 56 59 59 61 61 58 57 54 53 53 53 55 56 57 57 55 53 53 53 52 52 53 54
21 22 23 25 27 30 33 35 36 38 39 41 43 44 46 48 51 53 55 56 53 52 50 50 49 50 50 50 51 52 53 53 53 53 52 51 51 52 53 54 54 54 55 56
26 27 31 34 37 37 37 37 39 41 42 43 44 45 46 47 49 50 52 52 52 52 53 53 53 53 53 53 53 53 53 53 53 52 52 52 53 54 55 55 56 57 59 61
32 32 33 34 35 35 36 37 40 42 44 46 48 49 50 52 53 55 56 57 58 59 59 59 59 59 59 59 59 59 59 58 58 57 58 58 59 60 61 62 63 65 66 66
29 30 32 35 37 39 41 43 46 48 51 53 54 56 57 59 59 60 60 61 62 62 63 63 63 62 62 63 63 63 63 63 63 63 62 62 62 62 62 62 61 60 59 57
31 34 37 40 43 45 48 50 53 56 58 60 60 61 60 60 60 59 59 60 59 58 58 58 57 57 56 56 56 56 55 54 53 53 53 52 51 49 48 46 44 42 42 42
38 40 43 45 48 52 54 56 58 60 61 61 61 61 61 60 59 57 55 54 54 54 53 52 52 52 51 49 47 46 45 44 42 42 41 40 38 37 36 37 37 39 41 43
43 45 49 52 53 57 60 60 59 59 59 60 60 58 55 52 50 48 47 48 47 47 47 47 45 43 41 40 38 37 37 36 35 33 32 32 33 35 35 36 38 40 43 46

GFSNGP_500_spd_081.txt.gz
Wind_Speed
29 29 28 27 25 30 31 27 38 34 34 37 27 40 31 39 40 41 33 33 27 26 26 23 26 26 26 25 23 23 22 22 22 22 20 19 19 21 21 21 21 22 22 24
30 31 27 29 29 31 34 30 39 36 39 41 30 36 39 49 44 40 35 34 33 31 26 28 29 28 29 30 30 28 27 26 25 24 23 24 24 24 23 24 26 26 25 26
28 26 26 26 30 33 39 31 39 39 35 40 44 35 22 40 44 43 43 38 37 33 28 27 26 23 19 22 24 24 28 31 31 31 29 27 27 28 29 30 31 30 31 31
29 25 25 24 23 27 25 37 33 28 30 39 44 23 30 22 35 37 37 40 39 34 33 29 29 27 25 24 25 27 26 26 30 31 30 31 34 35 35 36 36 36 37 37
28 24 22 20 19 16 17 24 32 30 29 35 40 29 25 27 36 40 38 42 39 39 39 33 33 34 31 29 26 29 32 34 34 35 35 35 37 37 40 42 44 41 44 44
26 25 24 21 21 12 18 16 10 24 27 26 32 35 24 25 35 39 47 50 46 44 40 35 35 37 35 34 36 36 36 40 42 42 43 44 43 44 46 46 45 44 48 47
30 32 25 24 24 5 9 15 17 21 24 22 27 37 32 37 42 38 40 45 45 41 42 40 37 38 39 38 37 35 32 35 40 44 48 51 47 47 43 49 54 55 55 56
31 34 27 29 17 4 5 10 13 22 17 22 31 37 40 35 38 36 38 41 44 43 40 36 37 37 37 37 35 34 33 35 38 39 39 40 40 40 42 43 44 49 50 52
24 25 25 31 16 6 14 17 20 20 19 22 30 27 32 35 34 35 33 32 34 36 38 38 37 38 37 38 37 33 32 34 38 41 41 41 42 44 46 49 51 52 53 55
18 16 24 31 17 4 16 11 22 22 26 29 29 36 32 35 35 37 35 32 35 36 37 37 36 38 38 39 39 37 37 38 41 43 45 48 51 52 53 52 52 52 53 54
7 9 19 17 13 10 12 9 9 24 23 25 27 34 39 39 36 35 36 36 36 37 36 37 38 38 38 40 44 46 46 46 48 50 53 54 56 56 52 51 50 50 52 54
14 7 12 11 15 17 15 15 15 17 18 22 24 27 26 24 28 35 35 33 35 36 37 38 38 40 42 46 47 51 54 55 57 58 57 56 54 53 55 56 57 59 61 62
14 15 14 18 22 26 24 19 17 16 20 21 24 27 30 31 34 33 32 31 32 31 34 36 36 39 41 44 45 48 50 51 53 53 54 55 55 57 59 61 64 65 67 67
17 18 20 15 11 10 11 25 21 24 21 19 17 18 20 21 22 24 27 30 30 30 32 35 37 39 40 42 44 46 47 49 51 53 55 56 59 61 63 65 67 70 73 75
13 12 12 13 17 15 14 15 16 19 20 20 20 21 22 23 25 27 30 32 34 36 37 38 40 42 43 45 47 49 51 53 55 56 58 62 65 67 70 72 75 77 78 78
8 9 9 11 12 13 15 17 19 22 24 27 27 27 28 30 32 34 35 36 39 41 42 43 44 46 48 49 51 53 55 58 60 62 65 67 68 69 68 65 62 60 57 54
14 16 17 18 19 20 19 20 22 25 27 28 30 32 34 36 38 39 41 42 43 45 47 48 50 51 53 55 57 59 60 61 61 62 63 63 62 61 60 61 59 56 56 57
17 18 19 21 23 23 24 25 27 28 30 33 35 37 39 41 43 44 46 47 49 51 53 54 56 58 60 59 59 59 58 58 58 60 60 62 61 61 60 59 61 63 65 64
22 21 23 24 26 28 30 32 33 34 36 38 41 43 45 47 48 50 52 53 54 55 56 58 58 58 56 54 55 58 61 64 65 66 67 66 64 63 63 62 62 63 63 64
22 24 26 28 29 30 31 33 34 37 39 42 44 46 47 48 48 47 48 48 49 50 51 52 54 57 59 61 63 63 61 60 59 59 59 59 60 62 63 64 64 63 62 61
19 22 24 26 28 31 33 35 37 39 42 45 46 46 47 47 49 50 51 51 52 53 53 54 55 56 57 57 58 59 60 61 61 62 62 62 62 62 62 62 62 63 63 62
23 25 27 29 32 34 37 38 40 42 42 43 44 46 47 49 51 52 54 55 56 57 58 59 60 61 62 63 65 65 66 66 66 67 67 66 66 65 65 65 65 64 64 65
27 28 29 31 33 34 36 39 41 44 46 48 50 51 52 54 56 57 59 60 62 63 64 65 66 66 66 66 67 67 68 68 68 68 68 67 66 66 66 65 65 64 63 63
30 32 34 35 38 40 42 44 47 49 51 53 55 58 60 62 64 64 65 65 65 66 66 66 66 66 66 66 65 65 64 63 62 61 60 60 59 57 56 55 54 54 53 51
33 36 39 42 45 48 50 51 53 55 59 61 63 63 64 64 64 63 63 63 63 63 63 62 61 61 60 60 59 58 57 56 55 54 53 51 49 47 45 44 43 42 40 39
40 43 45 47 48 49 51 54 58 61 63 62 61 61 63 63 62 60 58 57 55 53 52 51 50 49 49 49 49 49 48 47 45 44 42 41 39 38 36 35 34 35 35 36
45 46 47 48 51 54 58 60 58 59 60 61 61 59 56 53 50 47 45 43 42 41 41 40 40 40 40 39 39 38 37 36 35 34 34 33 33 32 32 32 33 34 35 36

GFSNGP_500_spd_084.txt.gz
Wind_Speed
23 27 27 26 28 27 28 29 36 23 30 25 29 26 26 30 30 32 36 35 34 31 25 22 20 21 23 22 22 22 21 20 18 17 16 15 14 16 18 19 19 19 20 22
23 26 26 26 26 27 31 29 32 32 27 29 31 31 31 27 31 37 38 39 37 33 27 23 23 24 27 26 26 26 25 23 21 21 21 21 21 20 20 20 22 23 24 24
26 26 28 26 22 27 30 35 31 32 27 29 29 35 30 35 31 42 43 43 39 36 33 28 29 30 27 30 27 27 27 26 27 27 26 25 27 26 25 26 27 28 29 30
27 26 26 25 23 26 27 29 34 31 32 25 31 26 27 31 25 39 46 43 38 39 37 37 33 31 29 28 23 21 21 20 21 22 22 27 30 29 29 29 31 33 33 36
29 27 24 20 22 22 21 17 28 25 21 22 21 27 35 28 23 31 45 42 43 41 39 40 35 27 25 26 24 21 21 21 22 24 25 27 29 32 32 34 36 37 36 39
25 24 22 15 18 19 15 18 21 9 16 23 26 33 38 35 32 29 29 57 49 44 43 39 37 37 35 35 33 28 27 28 29 31 33 36 36 37 38 39 42 43 44 46
21 23 20 17 16 14 12 14 7 10 13 16 16 22 31 36 26 25 32 28 46 50 43 41 43 39 39 38 35 35 35 32 34 35 37 36 39 42 45 49 52 50 53 51
19 21 22 18 15 16 8 3 12 13 15 26 22 24 26 30 32 28 31 35 35 34 42 45 45 41 40 40 39 43 40 36 37 37 37 36 35 36 38 40 43 45 43 45
17 22 25 21 16 17 12 3 3 21 20 10 16 36 31 37 39 33 35 38 39 43 39 38 42 44 45 44 42 40 37 37 37 37 36 35 35 36 37 39 39 42 45 47
17 14 14 17 22 18 7 5 6 7 8 14 20 25 35 45 43 38 39 43 50 48 45 42 40 37 37 37 38 39 38 37 37 38 38 39 40 40 41 43 45 48 50 52
8 7 7 12 27 20 8 7 8 11 11 14 19 26 31 31 33 34 36 38 41 38 37 36 37 40 42 42 40 38 38 37 38 41 45 47 49 50 50 51 52 54 55 54
8 1 4 8 11 12 9 7 15 16 13 11 11 12 18 23 23 22 23 28 32 35 38 37 38 36 37 38 38 38 39 40 43 45 46 48 51 52 53 52 53 54 56 57
5 7 6 6 10 13 15 15 17 13 17 12 12 14 15 17 17 18 18 21 22 22 23 27 32 35 37 38 39 40 41 42 44 46 46 47 49 50 50 52 54 56 57 60
10 5 11 4 3 2 2 12 19 19 18 18 15 13 13 14 15 15 17 21 23 24 26 27 28 31 33 35 37 40 42 43 45 47 48 50 52 53 54 55 57 59 61 63
13 13 6 5 5 11 16 13 9 10 14 17 18 16 17 17 18 19 21 22 24 26 28 31 32 34 37 40 42 44 45 47 49 51 53 54 56 58 60 61 63 65 67 69
2 1 3 4 7 9 9 10 12 12 14 17 18 20 23 25 27 29 29 31 32 34 36 38 40 41 43 45 46 48 49 51 53 54 56 59 60 62 64 66 68 69 70 69
8 9 11 14 14 13 14 14 15 16 18 21 23 25 27 29 31 33 34 36 38 40 42 43 45 46 48 50 51 52 54 55 57 59 61 64 65 65 65 66 66 65 65 65
10 11 14 16 17 18 19 19 20 23 24 26 27 30 32 34 36 38 40 42 44 45 47 49 50 52 54 56 57 58 60 61 62 63 63 60 59 61 64 65 65 65 65 64
14 16 18 19 19 20 22 25 26 28 30 32 34 36 38 40 42 44 46 47 49 50 52 53 54 55 57 58 58 59 59 59 59 60 61 63 64 66 65 64 64 64 63 64
17 18 19 20 21 22 25 27 29 31 33 36 38 40 42 44 46 48 49 49 50 51 51 53 54 55 56 58 60 61 62 63 63 64 64 64 64 64 65 66 66 67 68 68
19 21 23 25 27 29 30 31 33 35 38 40 42 44 45 47 48 49 50 51 52 53 54 56 57 58 59 60 61 63 64 65 65 66 67 68 69 70 71 72 72 72 72 73
23 24 26 27 28 30 32 34 36 38 40 42 44 46 48 50 52 54 56 57 58 60 61 62 63 64 65 66 67 68 69 70 71 71 72 72 72 72 72 72 72 73 72 72
24 26 29 31 33 36 38 41 43 45 47 50 52 54 56 58 59 60 62 64 66 68 70 71 72 72 73 73 73 73 72 72 72 71 71 70 70 70 69 67 66 65 64 62
30 32 36 38 40 42 45 47 50 52 55 57 59 60 61 63 65 68 70 71 71 71 71 70 70 69 69 68 68 68 68 68 67 66 65 64 63 62 60 59 58 56 55 53
35 38 41 44 46 48 50 52 53 54 56 58 61 63 64 65 65 65 65 65 66 66 66 65 64 63 62 61 60 58 57 55 55 54 53 53 53 52 51 50 49 47 45 43
41 43 45 48 50 50 52 53 56 58 61 62 61 62 63 64 65 63 62 59 56 53 50 48 47 46 45 44 43 43 43 43 43 43 43 42 42 41 40 39 38 38 37 35
41 45 47 49 50 52 55 58 58 58 59 60 61 61 58 54 51 48 46 44 43 41 39 38 37 37 37 38 38 37 36 35 35 34 33 33 33 33 32 32 32 32 32 33

GFSNGP_500_spd_087.txt.gz
Wind_Speed
25 26 27 24 23 27 28 27 33 19 26 17 22 26 31 27 34 39 37 34 32 31 40 33 29 28 26 27 25 22 21 19 17 16 14 12 11 10 11 11 11 12 13 15
20 25 29 24 22 25 28 29 31 27 13 24 24 22 32 27 34 38 36 38 34 31 32 30 27 26 25 24 27 26 23 21 20 20 20 18 17 16 16 16 18 19 20 20
15 13 16 21 20 24 27 28 31 26 20 20 24 21 26 30 30 36 38 36 38 34 33 31 29 27 27 29 29 29 27 26 26 24 23 22 21 20 20 21 23 24 24 25
19 17 19 22 20 20 23 25 28 23 20 23 21 21 25 28 31 32 42 45 43 38 35 34 33 32 29 29 28 29 31 30 25 23 19 19 19 21 23 23 24 25 27 27
19 19 20 22 20 20 20 20 24 21 22 25 21 20 24 26 27 34 37 48 46 43 41 40 40 34 31 30 26 28 31 25 23 23 23 20 20 21 23 24 24 28 30 32
20 23 22 17 17 17 17 17 19 17 20 26 23 23 19 29 29 33 28 39 45 46 48 45 41 39 40 34 30 25 26 22 22 23 23 21 20 21 26 30 33 33 34 35
19 20 18 16 14 13 12 13 16 21 25 23 23 21 20 24 35 27 29 28 47 52 51 44 40 40 39 45 29 28 29 28 27 26 26 28 29 27 28 31 34 39 42 43
19 20 13 10 8 7 9 14 15 18 14 18 19 22 20 19 23 30 32 22 34 55 52 49 45 42 43 41 39 36 34 38 36 32 34 35 35 34 34 35 37 39 41 46
16 10 5 7 9 7 12 5 3 5 5 6 22 27 22 23 25 27 31 26 29 31 37 51 44 54 55 53 47 43 43 44 37 44 39 42 39 38 39 38 38 38 39 40
7 4 6 9 11 12 17 7 4 4 4 9 12 18 28 31 30 30 30 33 31 33 36 37 37 51 65 52 46 48 48 47 43 45 47 42 40 40 40 41 43 43 43 43
6 3 7 10 12 21 20 11 2 8 9 10 11 18 21 29 34 39 39 39 38 35 36 38 41 41 38 38 40 38 36 38 38 42 43 41 41 43 45 48 49 50 50 51
4 6 4 1 9 19 19 12 9 10 12 12 11 11 11 15 20 25 27 29 30 32 32 36 39 42 47 43 40 41 42 42 42 42 43 43 45 47 49 51 52 52 52 54
8 1 4 2 4 3 8 5 9 14 17 15 14 13 11 12 13 13 14 17 18 18 22 24 26 26 25 25 29 31 33 35 38 40 43 44 47 48 50 51 53 53 52 52
7 3 4 4 3 4 3 3 6 11 18 18 17 15 14 13 12 13 14 14 14 14 15 16 18 20 22 24 27 29 32 34 36 39 42 44 47 48 49 50 52 53 54 56
7 10 5 5 3 2 4 4 5 7 10 12 13 13 13 14 16 16 16 17 17 19 20 22 23 25 27 29 31 33 36 38 40 43 46 48 50 52 55 56 57 58 59 61
5 5 5 7 3 5 7 6 7 8 9 10 13 14 15 17 20 23 25 26 27 28 30 32 34 35 36 38 40 42 44 45 47 49 50 52 54 57 58 59 60 61 64 66
3 2 4 5 7 10 11 12 12 13 14 15 16 18 20 22 24 26 28 30 32 34 36 37 39 41 42 44 46 47 48 50 52 54 55 57 59 61 62 63 65 67 69 69
5 6 9 11 12 13 15 17 18 20 21 22 23 24 27 29 31 32 33 35 37 38 40 42 43 45 47 49 50 52 53 55 56 57 59 60 61 62 63 64 65 66 66 66
8 10 13 14 17 18 20 22 24 25 25 27 29 31 34 36 38 39 40 42 44 45 46 48 50 51 52 53 54 55 56 56 57 59 60 61 62 63 64 65 65 66 67 67
13 14 15 18 19 21 24 25 27 29 31 32 34 36 38 40 42 43 45 46 47 49 50 51 52 53 53 54 56 57 59 60 61 63 64 65 66 66 67 68 69 70 70 71
13 15 17 19 23 25 26 27 28 30 31 34 36 39 41 43 45 47 49 50 52 54 54 55 56 57 58 59 61 62 63 65 66 67 68 69 70 71 72 73 74 74 75 75
18 21 23 24 26 28 30 32 35 37 40 42 45 47 49 51 53 55 57 58 60 61 63 64 65 67 68 69 70 71 72 73 73 73 73 73 73 73 73 73 73 73 73 73
22 24 26 29 33 35 38 41 44 46 49 51 53 55 58 59 61 62 63 64 66 67 69 70 71 73 73 74 74 74 74 73 72 72 71 71 70 70 70 70 69 69 68 67
25 29 32 36 39 43 46 48 50 53 55 57 59 61 61 62 64 65 67 68 69 70 70 70 70 71 71 71 70 70 69 68 68 66 65 65 63 61 60 59 58 57 56 55
31 34 38 41 43 44 47 49 51 54 56 58 60 62 63 64 64 65 65 66 67 67 67 66 65 63 61 59 58 56 54 53 52 51 50 50 49 48 48 48 48 47 45 44
36 37 38 40 43 46 49 51 54 56 56 57 58 59 59 60 61 62 61 59 57 54 52 51 50 49 48 47 46 44 44 43 43 43 43 42 41 40 39 38 37 36 35 35
37 40 42 44 47 49 52 53 53 54 55 56 57 58 57 54 50 48 47 46 46 45 44 43 43 42 41 41 40 40 39 39 39 38 38 38 37 37 35 34 33 33 33 33

GFSNGP_500_spd_090.txt.gz
Wind_Speed
21 19 19 18 20 22 23 25 26 21 20 22 25 22 19 23 28 28 32 40 38 40 39 37 30 31 27 27 26 27 25 24 20 19 17 13 10 9 10 10 10 11 12 13
23 21 19 19 20 22 22 24 23 19 22 20 20 22 17 20 27 31 34 37 40 41 38 37 36 34 29 25 25 27 27 25 24 24 21 18 17 16 14 14 14 14 14 13
22 22 24 20 19 18 20 25 25 19 20 19 21 21 18 19 24 32 36 37 36 35 35 34 38 39 33 30 29 30 30 31 29 27 25 23 21 19 18 18 19 19 19 19
19 17 14 15 14 16 17 22 24 24 22 20 19 19 18 19 20 32 35 34 36 37 37 36 44 38 35 33 33 32 34 34 33 31 29 27 25 22 23 23 22 21 23 23
7 10 12 10 13 16 16 18 20 21 21 22 16 21 23 18 19 28 36 41 35 43 38 35 34 34 35 34 32 33 36 36 35 35 33 29 25 22 21 22 22 24 25 25
5 8 12 13 12 16 18 21 22 21 18 22 21 22 23 22 21 25 31 42 39 40 42 41 39 39 37 37 35 33 31 31 34 38 37 30 28 25 23 22 23 25 26 26
5 9 10 10 11 14 17 18 20 22 20 22 26 26 25 25 23 25 29 31 43 53 51 47 45 42 41 40 40 38 37 42 33 30 33 34 33 30 27 25 26 26 27 30
10 9 8 11 13 14 14 17 17 19 21 25 24 23 25 28 24 27 27 25 25 41 51 53 52 52 51 46 44 42 38 38 38 38 35 34 33 33 31 32 32 32 33 35
12 11 11 12 15 14 15 13 10 10 9 13 14 21 27 30 24 28 32 22 25 27 48 55 62 57 63 53 51 51 53 54 48 44 43 40 36 37 38 39 40 39 38 39
15 10 11 13 12 15 15 10 6 2 5 7 10 6 9 18 26 26 23 23 24 30 30 43 43 52 43 53 54 53 51 59 59 60 51 48 39 41 47 53 44 42 44 44
9 12 13 10 7 12 17 13 5 5 5 5 3 6 7 15 21 26 29 31 30 28 32 32 35 43 53 62 66 62 57 54 59 54 57 55 53 48 51 55 48 45 47 47
8 7 5 4 5 11 19 15 12 7 7 11 7 7 6 9 14 17 19 22 25 29 33 38 40 40 41 42 42 44 47 49 50 51 52 48 48 46 45 48 50 49 50 53
12 6 6 7 6 6 13 5 6 9 11 11 12 10 10 11 12 13 14 19 23 26 26 28 29 30 34 35 37 41 44 45 43 44 46 47 43 43 47 49 48 50 51 53
10 7 8 6 2 2 4 5 5 5 8 13 16 16 14 14 17 13 11 11 12 14 17 19 21 22 24 26 28 29 30 32 33 35 35 36 35 37 41 43 46 50 53 55
8 10 5 6 5 3 1 3 4 5 4 8 10 13 14 15 15 16 16 16 18 20 20 20 20 20 21 23 24 26 26 27 30 32 34 36 38 41 43 47 49 51 54 56
7 7 5 3 4 1 2 2 3 5 7 9 10 11 12 13 16 18 19 21 22 24 26 27 28 29 30 32 33 34 36 37 39 40 42 44 46 49 51 53 55 57 59 60
10 7 6 6 7 7 9 10 12 13 14 16 18 19 20 21 22 23 25 27 28 29 30 32 33 35 36 38 39 41 43 44 46 48 49 51 53 54 56 58 60 62 63 66
4 5 6 7 10 11 12 14 15 17 20 22 24 26 28 29 30 31 32 34 36 38 39 40 42 43 44 46 47 49 50 52 53 55 57 58 60 61 63 65 66 68 69 71
6 8 9 11 12 14 16 18 20 22 24 27 29 31 33 34 36 38 40 41 43 44 46 48 50 52 53 55 56 57 59 60 61 62 62 63 64 65 65 66 67 68 69 70
10 10 13 15 17 19 20 23 25 28 30 32 35 36 37 38 40 41 43 45 46 48 48 49 51 52 54 55 57 58 59 60 61 62 62 63 64 65 67 68 69 70 72 73
13 15 16 18 21 22 22 23 25 27 29 32 34 37 40 42 45 47 49 51 52 54 56 57 59 60 61 62 63 65 66 68 69 70 71 72 74 75 76 77 78 79 80 80
15 17 19 21 22 24 27 30 34 38 41 43 45 48 50 52 54 57 59 60 61 62 63 64 65 67 68 69 69 70 70 71 72 72 74 75 75 76 76 76 76 76 76 76
18 19 21 25 29 33 36 39 42 43 45 47 49 52 54 56 58 60 62 64 66 67 68 69 71 71 71 71 70 70 70 70 70 70 69 69 69 68 68 68 68 68 68 67
20 24 28 31 35 37 38 40 42 44 47 49 52 55 57 58 60 61 62 63 63 64 64 65 65 66 66 66 66 65 65 64 62 61 60 59 58 57 56 55 54 53 53 52
25 29 33 34 35 39 42 44 46 49 51 54 55 55 56 57 58 58 59 60 61 61 62 61 60 59 57 56 55 54 53 52 51 50 49 48 47 47 46 46 46 45 44 44
30 31 32 35 39 42 45 48 51 53 53 53 55 55 55 57 59 59 58 56 53 51 50 49 48 47 47 47 46 46 45 45 44 44 43 43 43 43 43 42 42 42 41 40
30 31 34 39 44 48 51 53 54 53 54 55 54 56 57 56 52 49 47 45 43 42 41 40 38 36 36 36 36 36 36 37 37 38 38 39 39 40 39 39 39 40 41 40

GFSNGP_500_spd_093.txt.gz
Wind_Speed
18 22 23 23 19 18 19 21 19 19 17 21 25 20 21 20 25 28 28 31 30 29 36 37 37 31 38 35 30 30 26 24 23 22 21 21 17 15 15 14 12 11 12 13
24 14 15 16 17 16 17 17 15 17 17 24 19 19 19 21 24 25 31 33 31 33 35 39 42 38 38 32 30 28 24 24 24 24 24 24 21 17 15 16 16 15 16 16
24 20 16 14 13 14 16 19 13 17 17 18 17 14 18 18 22 23 28 33 31 32 37 37 44 37 43 37 30 29 23 24 28 29 27 28 25 22 19 18 16 17 17 16
24 23 14 15 14 14 14 11 15 17 18 18 15 14 18 19 18 20 22 26 31 33 34 36 36 37 35 32 33 33 32 29 31 34 32 31 30 27 25 23 22 21 20 19
23 17 13 11 9 10 11 14 12 15 16 15 12 16 17 18 21 21 22 22 28 33 32 39 40 39 40 41 42 38 36 33 34 36 37 35 35 33 31 29 28 27 26 25
13 8 9 11 11 10 10 14 14 15 18 15 11 14 20 20 21 22 22 22 23 35 32 31 38 40 41 40 40 39 35 35 36 35 40 40 40 39 37 34 34 33 32 31
9 6 6 8 10 11 12 17 16 16 18 19 15 16 20 21 22 24 23 24 24 35 29 40 44 42 34 39 35 37 36 36 33 36 37 41 46 44 43 39 37 35 34 32
6 2 5 9 11 12 14 16 17 18 17 20 19 20 23 23 24 26 25 24 24 25 35 42 43 38 38 45 37 41 40 41 38 43 38 40 42 35 42 44 41 38 36 32
3 6 11 13 13 14 16 17 15 13 16 16 17 20 20 22 23 24 26 21 20 18 17 33 50 46 46 47 48 45 45 52 46 45 45 46 59 45 44 47 48 47 42 41
9 14 16 16 15 15 17 17 12 8 5 4 4 5 9 16 17 25 26 24 24 21 23 26 21 53 60 53 59 56 70 67 59 61 65 47 56 51 47 57 54 52 49 46
12 17 23 21 15 16 17 15 10 5 4 4 6 7 6 9 12 15 18 23 23 24 27 27 26 31 39 34 51 53 53 63 64 60 59 52 59 55 59 58 59 57 54 55
10 14 17 17 15 13 12 13 12 7 6 6 6 8 8 11 12 14 15 19 19 23 26 26 29 30 32 36 36 45 47 42 42 51 56 65 64 65 67 67 69 71 70 67
13 11 9 6 7 7 12 11 9 10 9 7 7 9 12 12 12 9 11 13 17 21 23 25 27 30 32 34 36 36 38 41 42 41 44 51 52 55 58 58 60 66 73 70
15 10 10 7 6 4 8 10 7 6 6 7 9 11 12 12 10 9 9 10 10 9 11 14 18 22 27 28 29 30 31 33 35 35 38 44 48 49 52 51 50 50 50 49
13 8 6 6 5 4 3 2 3 4 4 5 6 9 10 11 12 13 14 14 15 16 17 18 20 20 21 22 23 24 24 25 26 27 29 32 33 33 35 35 36 39 41 43
13 10 8 4 2 3 3 3 4 5 7 10 11 12 14 16 16 17 19 19 20 21 22 23 24 25 26 28 29 31 32 33 34 35 37 39 39 40 41 43 45 46 48 50
10 9 7 6 5 6 7 9 11 13 15 17 18 20 21 23 25 26 28 29 30 30 31 32 33 34 35 36 37 38 39 40 41 42 44 45 46 48 49 50 52 54 56 58
7 6 7 8 9 10 12 14 15 17 18 20 21 24 26 28 30 32 34 36 38 39 40 41 42 43 44 45 46 47 48 49 50 51 52 53 55 56 57 59 60 62 63 65
5 6 8 9 11 13 15 17 19 21 24 26 28 31 33 34 36 38 40 42 44 45 46 47 47 48 49 50 51 52 53 55 56 57 58 59 60 61 62 63 65 66 66 67
9 10 11 13 15 17 20 22 24 26 26 27 28 31 34 37 39 41 43 45 47 49 51 52 53 54 55 57 58 59 60 60 61 61 62 63 64 65 66 68 69 70 72 73
12 14 16 17 18 19 19 20 22 25 28 32 36 39 42 44 46 49 51 53 55 57 58 60 61 63 64 65 66 67 68 68 68 68 68 69 70 72 73 74 75 76 77 79
16 16 17 18 16 18 22 27 30 32 35 38 41 43 44 46 49 51 54 56 58 61 63 65 66 67 68 69 70 71 71 72 72 73 73 74 74 75 76 77 77 77 76 76
16 16 15 17 22 26 27 29 32 36 41 43 45 47 49 51 53 55 55 57 59 60 61 62 63 64 65 65 65 65 65 66 66 66 67 67 67 67 67 67 68 68 68 68
15 17 21 24 25 25 27 32 36 41 45 50 54 55 56 57 56 57 58 58 59 59 60 61 62 63 64 64 64 64 64 63 62 62 62 61 60 59 59 58 57 57 56 55
18 23 25 26 26 28 32 37 41 45 50 55 58 58 58 58 57 57 56 58 61 62 61 59 57 54 53 51 50 50 49 49 49 49 49 48 48 48 49 49 49 48 48 48
23 25 25 28 32 36 41 45 49 52 53 55 56 57 56 55 57 60 61 60 56 52 49 47 45 43 42 41 41 39 38 36 36 36 36 36 36 37 38 39 39 41 42 42
26 27 30 34 38 42 46 48 51 53 55 57 57 56 57 60 60 58 54 49 45 43 41 40 38 37 36 35 34 33 33 32 31 31 30 30 30 30 31 33 34 35 37 38

GFSNGP_500_spd_096.txt.gz
Wind_Speed
16 28 22 21 17 22 23 31 24 25 24 27 26 16 13 17 19 21 22 23 22 21 25 27 33 36 38 37 37 35 36 31 24 23 22 22 22 22 17 18 13 11 10 8
27 30 26 24 19 12 23 24 24 25 28 22 22 13 18 16 19 21 21 23 23 22 23 27 34 39 40 41 42 38 32 31 24 24 22 22 23 23 19 17 15 14 10 12
14 11 9 9 11 12 16 12 13 17 19 15 14 10 16 16 15 18 20 20 22 23 23 28 31 38 41 45 38 34 40 28 24 23 24 26 26 24 21 20 16 15 16 17
10 6 5 8 10 10 11 11 13 13 14 16 12 13 15 16 15 16 17 19 20 22 25 28 31 36 42 43 43 37 34 30 26 26 27 28 28 26 24 24 23 21 19 20
10 13 13 9 8 8 8 8 9 9 11 12 7 14 16 16 16 15 17 18 18 22 26 29 32 35 42 39 44 40 38 35 32 32 32 30 32 31 29 29 29 27 26 25
11 12 16 11 10 6 6 9 10 12 13 14 11 12 14 15 18 18 19 19 22 23 25 31 33 33 38 36 36 34 39 38 36 39 36 34 34 35 35 35 35 34 32 31
16 13 13 7 6 8 9 12 9 10 13 13 13 13 14 15 17 20 21 21 23 23 28 29 35 41 35 40 40 41 40 43 42 43 37 36 36 38 41 40 40 40 39 38
15 10 7 1 4 7 9 12 12 14 15 14 14 13 14 17 19 20 20 19 23 23 25 27 24 34 40 46 52 50 41 46 50 45 42 41 39 35 37 31 42 46 46 43
11 7 6 6 7 11 13 14 12 12 10 12 14 15 16 18 20 20 21 20 20 19 20 18 18 23 31 45 44 38 42 54 59 51 49 44 42 43 45 38 34 40 43 43
4 6 9 12 15 16 17 16 13 10 10 4 2 6 9 11 14 15 16 20 19 20 21 21 18 18 20 26 39 45 44 48 55 57 57 54 49 50 55 47 44 58 51 47
6 10 12 15 15 16 18 15 11 10 9 5 1 7 8 9 7 8 10 12 14 16 19 23 25 25 24 22 21 26 44 50 59 60 67 66 62 59 63 57 55 64 65 62
8 9 9 9 11 13 16 14 10 12 8 6 5 6 7 10 13 11 10 11 13 15 17 18 20 22 24 25 27 27 28 35 34 39 47 47 54 57 57 60 64 66 69 69
9 7 6 9 9 10 12 11 12 12 10 9 9 8 9 10 12 11 10 10 11 11 11 12 15 18 20 23 25 26 28 30 33 34 37 42 43 41 48 47 48 56 60 67
13 9 4 8 8 8 8 10 8 7 8 8 7 8 9 7 7 8 8 10 10 12 13 13 12 12 12 13 13 16 21 24 30 32 35 38 40 43 45 47 50 54 54 53
15 7 7 9 6 5 4 4 5 6 6 5 6 8 10 12 13 13 13 15 15 17 18 19 19 20 21 23 25 26 25 24 24 25 23 25 27 29 32 33 35 38 44 40
13 8 8 5 2 1 2 4 6 7 8 10 12 14 15 17 19 20 21 23 24 25 26 27 28 29 29 29 29 31 32 31 32 33 34 34 35 36 37 38 39 40 41 42
11 10 6 4 5 4 7 9 10 11 13 15 17 19 20 22 24 26 28 30 31 32 33 34 35 36 37 38 39 40 41 42 42 42 42 43 44 45 46 46 48 48 49 50
6 4 4 5 7 8 10 11 13 15 17 19 22 24 26 27 28 29 31 33 35 38 39 40 42 43 44 46 47 48 48 49 51 52 52 53 53 54 55 56 57 58 59 60
3 2 4 7 9 12 14 16 18 20 21 21 21 24 27 30 32 34 37 39 41 44 46 48 50 51 52 52 53 54 55 56 56 56 57 58 59 59 59 60 61 63 63 64
2 6 8 11 13 15 16 17 16 16 19 21 24 28 32 34 36 38 40 45 47 48 50 52 54 56 58 59 60 61 62 63 64 65 66 67 67 68 69 70 70 70 71 72
6 10 13 13 14 15 13 13 16 18 22 25 28 32 34 37 40 45 48 53 57 57 57 59 60 61 62 64 64 65 66 67 68 68 69 70 71 72 73 74 75 76 77 77
13 15 16 15 14 14 15 18 20 22 26 30 34 38 42 45 48 50 53 58 60 60 62 63 63 63 63 63 63 63 62 63 63 63 64 65 65 66 67 68 69 70 70 71
15 16 15 15 17 18 20 23 25 28 32 37 41 45 48 50 52 55 58 59 60 60 60 60 61 62 63 64 65 65 65 65 64 63 62 62 62 62 62 62 63 63 64 64
16 16 17 18 20 23 25 27 30 34 38 42 47 51 54 55 56 58 61 62 61 60 62 64 66 67 65 64 62 61 60 58 56 55 54 53 52 51 51 51 52 52 53 54
17 18 20 23 26 29 32 35 37 40 44 48 51 53 56 58 61 63 63 61 62 65 64 60 57 54 50 48 47 46 45 45 44 44 43 43 42 41 41 40 41 41 41 41
19 20 24 28 32 35 38 41 43 46 51 55 57 58 59 61 63 62 60 62 64 61 55 50 46 43 42 41 40 39 38 37 36 36 35 34 34 33 32 31 30 30 30 31
22 27 30 34 38 41 44 46 49 52 55 57 59 61 62 64 62 62 63 63 58 52 47 43 41 40 38 38 37 37 36 36 35 35 35 34 33 33 31 30 29 30 30 31

GFSNGP_500_spd_099.txt.gz
Wind_Speed
19 26 25 20 22 25 24 16 27 21 35 15 4 6 6 7 9 15 18 18 16 17 20 24 24 28 28 28 28 29 32 32 32 29 29 26 22 22 24 21 19 21 18 19
11 22 29 20 27 23 15 26 15 29 19 21 16 14 21 17 12 15 18 18 18 17 19 23 24 27 30 31 32 34 34 35 34 33 33 30 22 23 23 21 18 17 17 14
29 34 31 31 20 33 14 20 17 15 16 20 15 15 12 14 14 16 17 18 17 15 17 20 23 27 32 35 37 38 38 38 36 35 34 29 23 25 24 22 20 17 17 17
17 17 11 11 9 6 7 4 4 6 10 8 10 13 14 17 19 17 17 17 17 17 17 19 23 27 31 35 39 40 40 39 39 40 39 33 30 28 26 23 23 21 19 19
16 12 12 11 9 8 6 4 4 5 6 8 10 13 17 20 19 18 16 16 17 17 17 18 21 26 31 35 37 41 42 43 41 38 37 38 32 29 30 27 25 25 23 22
14 11 10 6 7 7 5 2 3 6 9 9 11 15 17 19 19 20 19 18 17 18 19 19 21 25 31 33 36 39 44 44 46 45 35 39 32 36 32 31 30 29 28 27
3 5 7 4 3 2 2 5 5 8 10 11 12 13 14 16 17 17 17 18 18 19 20 20 20 24 26 30 37 37 39 43 37 41 38 43 37 40 36 35 34 34 35 34
9 9 9 9 6 2 2 5 8 11 12 12 13 14 13 15 19 19 17 17 17 20 20 20 20 20 25 29 42 38 41 44 43 42 51 48 42 46 46 42 40 39 39 40
13 11 12 10 6 3 3 7 10 13 11 10 11 13 14 13 14 17 18 18 19 19 22 22 20 15 16 20 35 40 45 53 48 48 49 48 49 45 54 49 46 45 38 41
9 5 5 3 3 7 8 7 10 12 9 8 5 2 3 6 10 14 15 15 16 17 19 21 19 17 15 15 14 17 29 46 57 49 48 58 55 56 60 53 52 50 49 46
2 5 2 7 10 10 7 5 5 9 8 8 8 2 2 4 4 5 4 6 8 9 12 16 18 17 18 18 17 19 18 18 21 35 52 54 56 61 56 60 60 60 60 59
3 7 11 11 6 6 6 6 4 6 8 7 7 7 8 8 9 11 10 9 8 6 7 9 12 14 15 17 18 19 21 22 24 23 25 27 35 42 44 51 60 61 63 61
9 10 11 7 4 5 6 5 5 6 7 7 7 8 8 9 10 10 9 8 7 9 10 10 10 10 10 11 12 13 16 21 24 26 27 27 31 33 41 39 38 35 40 42
15 11 8 6 4 2 3 4 4 3 4 4 3 3 5 8 9 10 10 11 11 13 14 14 15 16 17 17 18 18 17 15 17 21 22 23 26 31 34 37 40 44 45 47
9 10 6 4 4 4 1 1 2 3 3 4 6 9 9 11 13 15 16 17 18 19 20 22 22 23 24 24 25 26 26 26 27 28 29 28 28 27 28 30 33 37 37 39
12 7 5 5 2 5 6 6 6 7 7 8 9 11 13 15 17 20 22 24 26 28 29 31 33 33 33 34 34 35 36 37 37 36 35 35 37 40 41 41 40 41 40 40
10 7 6 3 4 5 5 5 7 9 11 13 15 16 18 20 22 23 24 26 28 30 32 33 36 39 40 42 43 45 45 46 46 47 47 47 46 46 47 47 47 47 48 49
9 7 3 3 2 4 8 10 12 13 14 15 15 16 17 19 22 25 28 30 32 33 34 36 40 42 44 47 49 50 51 53 54 54 55 55 55 54 54 54 55 56 57 58
7 5 4 4 7 9 11 12 12 11 11 13 15 17 18 21 25 29 33 35 39 43 44 44 47 50 52 54 55 57 57 58 59 60 62 63 64 64 64 64 63 63 64 65
5 4 5 7 9 11 10 10 9 11 12 14 17 22 25 28 32 35 39 43 46 50 51 52 55 56 55 57 60 61 61 62 62 63 66 67 67 68 69 70 71 71 71 71
4 5 7 8 10 10 9 10 12 13 17 21 25 28 30 35 39 43 47 51 54 55 56 59 59 60 63 64 64 65 65 64 63 62 62 63 65 67 68 70 71 72 73 74
5 8 8 13 12 12 14 15 17 21 24 28 31 34 37 41 44 48 53 56 57 60 62 61 64 65 64 64 64 65 66 67 67 66 64 63 62 62 63 64 65 66 68 69
10 13 18 16 15 17 18 20 24 28 31 35 38 41 42 45 48 54 57 59 61 61 63 63 63 62 63 65 67 66 64 62 59 56 54 53 51 51 51 53 55 57 60 62
14 18 17 17 19 19 22 26 30 34 38 41 43 45 47 50 54 57 59 61 63 64 64 63 64 66 65 62 58 54 51 49 48 47 46 45 44 43 43 42 42 43 44 46
18 18 19 21 22 25 30 33 37 41 43 44 46 48 50 55 58 61 63 64 65 66 65 66 65 63 58 53 49 45 43 42 41 40 40 39 39 39 38 37 36 36 36 36
18 19 21 23 26 31 35 39 41 45 48 48 48 52 57 59 60 63 64 65 65 66 66 65 61 56 52 47 44 42 40 39 38 38 38 38 37 37 37 36 36 35 35 34
19 21 23 28 32 36 40 44 47 50 52 53 55 59 61 62 64 65 67 67 67 67 66 61 55 51 46 43 42 41 40 39 38 38 38 38 38 38 37 36 35 35 34 33

GFSNGP_500_spd_102.txt.gz
Wind_Speed
15 17 20 13 12 23 19 16 19 9 18 18 3 1 3 5 2 13 13 15 15 18 19 24 29 32 31 32 34 34 32 30 28 29 29 33 27 28 28 29 28 26 26 23
14 18 21 14 14 21 14 15 13 17 23 16 19 9 9 9 5 7 9 11 16 19 19 20 26 30 34 32 33 32 34 34 33 32 31 31 29 30 30 30 30 28 27 23
19 17 16 13 18 16 16 8 14 18 12 13 10 14 17 11 12 11 11 11 14 15 16 17 22 26 28 31 32 33 33 35 35 37 35 34 34 31 36 36 33 28 28 23
25 24 21 17 12 18 28 12 10 8 1 1 6 11 14 14 14 13 12 13 13 15 16 16 18 23 28 30 31 33 34 36 38 39 35 34 36 31 40 38 34 30 29 26
21 14 16 15 15 14 12 7 3 1 0 2 4 5 9 12 15 15 15 15 15 15 15 17 17 19 25 29 31 33 36 37 38 39 39 37 34 28 39 38 37 32 30 29
16 12 13 13 13 10 7 3 3 1 3 6 6 8 11 13 15 17 17 17 17 15 16 19 18 19 23 28 33 36 37 38 41 42 37 41 38 41 38 42 35 33 31 30
7 7 6 12 11 9 7 4 1 1 3 6 7 10 13 16 17 17 17 16 17 19 20 19 20 21 22 23 28 36 39 38 42 43 42 39 44 40 35 43 36 36 34 33
2 6 8 8 6 6 4 2 1 3 6 8 11 14 16 17 19 19 19 19 19 19 19 21 21 22 22 22 25 28 34 39 43 43 44 50 46 46 45 44 44 44 39 39
9 8 10 10 8 5 1 3 5 8 10 12 12 14 16 16 17 18 20 20 20 20 20 22 23 22 18 19 21 26 30 36 46 43 51 51 56 49 46 46 49 50 47 50
16 13 10 7 4 2 5 7 10 13 14 11 9 9 12 12 13 15 16 17 16 17 19 20 22 21 19 21 20 18 19 22 34 42 35 45 49 48 49 55 53 53 58 52
13 12 8 4 3 5 6 9 10 11 11 9 8 9 6 4 2 3 6 6 9 11 13 14 15 18 19 19 19 21 19 20 19 23 21 27 40 40 51 57 52 57 58 61
6 4 2 8 8 7 6 8 9 8 8 6 7 5 5 5 6 7 6 6 6 6 7 7 8 10 10 13 14 15 17 19 21 22 24 26 26 28 36 43 49 54 59 62
4 3 7 9 9 10 7 5 4 4 6 6 7 6 6 4 4 4 4 6 6 8 10 11 13 14 15 15 15 15 16 15 15 18 20 23 25 28 31 35 37 40 36 38
9 9 11 11 8 4 2 1 2 2 4 2 0 1 4 5 7 8 9 10 11 13 14 15 17 18 19 20 21 22 23 24 25 26 25 25 25 26 27 29 31 34 38 42
19 17 13 6 4 4 2 3 3 3 2 3 4 4 5 7 9 11 13 15 18 20 22 24 26 27 29 30 30 31 32 32 32 33 33 34 35 36 36 36 35 34 33 34
16 14 9 5 5 8 7 6 5 4 3 4 5 6 8 10 13 16 18 20 21 22 24 26 27 29 32 34 36 38 40 41 42 42 43 44 43 43 43 44 44 44 45 47
14 10 8 13 12 8 6 4 3 3 5 6 7 8 11 12 13 14 15 18 22 25 27 30 33 37 40 42 44 46 46 46 47 48 50 50 52 53 53 52 52 53 52 53
14 9 9 10 7 5 3 2 4 6 6 7 7 9 10 11 15 19 22 25 28 32 36 38 40 45 48 51 52 53 54 54 53 51 50 50 52 54 58 60 60 61 61 61
12 11 8 6 4 3 4 5 5 5 5 8 9 11 16 20 23 26 29 33 36 38 40 44 48 52 54 55 57 60 61 59 59 60 60 60 60 60 60 62 65 67 67 67
12 10 8 6 5 4 5 7 7 9 10 12 15 19 24 27 30 34 37 40 42 43 47 51 54 56 58 61 62 60 61 65 68 68 68 66 64 63 63 64 66 68 69 70
9 8 4 4 5 5 6 8 11 14 15 18 22 26 30 33 37 40 42 44 45 49 54 57 59 62 64 61 63 66 67 67 68 68 68 69 68 67 66 64 63 64 66 68
6 5 5 6 6 7 10 14 16 17 20 24 28 33 37 39 42 44 44 46 51 55 58 61 63 66 64 66 68 67 67 67 68 67 66 63 62 60 59 57 55 55 58 60
1 3 6 9 10 12 16 18 20 23 27 31 35 39 42 45 46 47 48 52 57 60 62 65 67 66 67 68 67 67 67 66 64 60 57 54 51 49 48 47 46 46 47 49
5 7 10 14 15 17 20 22 26 30 34 38 41 44 47 49 50 51 54 57 61 63 66 67 68 69 68 67 67 68 65 60 56 52 49 47 45 44 42 41 40 40 40 40
10 11 15 17 18 21 23 26 30 35 39 42 45 49 52 53 54 56 59 64 67 69 69 71 71 69 68 69 68 63 58 53 49 47 45 44 43 42 41 40 39 38 38 37
12 15 18 19 22 25 28 32 36 40 44 47 51 54 57 58 60 63 66 69 71 71 72 71 69 70 70 67 61 56 51 47 44 43 42 42 41 40 40 40 39 39 39 38
16 18 20 23 25 28 31 35 39 44 47 51 55 59 62 63 65 68 72 73 73 75 73 72 72 70 63 57 52 48 46 44 42 40 39 39 38 38 37 37 37 36 37 37

GFSNGP_500_spd_105.txt.gz
Wind_Speed
7 13 9 5 9 10 6 16 13 14 7 10 5 4 12 12 3 5 5 5 7 10 14 16 18 22 24 24 21 19 25 30 31 30 29 30 31 32 31 33 37 40 32 34
9 12 11 6 7 8 11 12 12 6 14 15 9 9 3 7 8 6 3 2 8 10 11 12 14 19 21 23 25 26 22 29 29 31 31 31 31 32 31 36 37 30 33 35
10 12 12 11 7 4 16 10 3 9 11 6 8 6 3 5 6 6 4 5 9 11 14 12 16 19 21 26 25 27 29 23 26 33 34 34 33 32 28 32 31 34 34 37
16 13 16 10 13 9 10 7 5 5 4 3 5 7 7 6 7 7 9 12 10 7 9 12 14 17 19 23 24 28 31 32 35 37 36 36 36 34 34 32 28 30 36 38
17 14 14 14 11 11 13 9 7 5 3 3 6 7 8 7 7 8 10 11 11 11 11 12 15 15 17 21 24 26 29 32 34 38 37 38 38 37 38 36 34 32 30 39
23 19 17 16 15 14 15 8 7 4 3 4 5 7 7 7 6 8 7 8 10 12 14 15 15 16 17 19 21 25 28 31 35 37 38 37 37 37 38 38 39 34 36 40
11 11 12 11 10 9 10 8 4 3 2 3 5 7 9 10 11 10 11 11 11 12 14 17 18 17 19 21 21 24 27 31 35 36 38 38 38 40 46 40 40 41 39 35
8 11 14 10 8 7 8 6 3 3 6 8 9 10 13 13 13 14 14 15 14 15 16 17 19 20 20 22 24 25 26 29 33 37 40 40 41 40 41 49 44 43 44 37
5 9 9 8 8 6 4 2 1 5 8 9 12 13 14 14 14 15 15 16 15 15 16 18 21 20 22 24 25 24 25 25 28 33 36 41 41 42 49 54 44 43 45 48
12 13 13 10 7 3 1 3 6 9 11 10 10 10 12 14 15 15 14 15 15 15 15 16 16 19 21 23 22 22 24 24 25 26 29 37 43 48 51 54 51 58 63 55
17 14 10 5 3 2 2 4 9 10 10 9 7 6 7 10 10 10 10 11 10 11 11 13 14 16 18 20 19 20 22 25 27 26 26 28 29 28 38 47 53 58 53 55
14 13 10 5 3 3 7 11 10 7 7 7 4 5 4 5 7 7 7 7 6 6 7 8 9 11 12 13 14 15 16 16 19 23 26 27 27 27 29 31 30 34 41 48
12 7 3 2 5 7 8 9 9 8 4 2 3 7 8 7 5 5 6 6 7 8 9 11 12 13 15 17 19 20 21 22 25 24 24 25 24 24 24 27 28 31 35 37
8 2 3 5 7 9 9 9 5 6 4 4 3 4 3 1 1 3 5 7 9 11 13 15 17 19 21 23 24 26 27 28 29 31 32 33 34 36 36 35 34 32 32 34
13 9 8 10 9 7 3 2 1 4 4 5 5 3 3 1 2 5 7 11 13 15 17 19 21 22 24 25 26 28 30 33 36 38 40 41 43 43 45 45 45 44 44 42
15 10 11 10 9 9 5 5 5 5 6 5 4 2 2 4 6 9 11 12 14 17 20 23 25 27 30 32 33 34 38 42 43 43 42 43 44 47 50 52 52 52 52 52
16 17 14 14 11 11 10 8 6 5 3 4 4 3 4 6 8 10 13 17 21 24 26 31 34 36 38 39 41 44 48 49 48 49 51 53 53 54 55 55 56 58 58 59
17 17 15 15 16 12 10 7 6 4 5 6 6 7 8 8 13 17 21 25 28 32 35 38 40 41 43 46 48 51 55 55 55 58 58 57 57 58 59 60 60 62 63 64
17 16 16 17 13 9 6 5 5 6 8 9 10 11 14 17 22 25 29 32 35 37 40 42 43 44 47 49 54 58 59 60 62 63 63 64 66 67 67 67 68 68 68 69
19 17 13 11 9 6 5 6 7 8 10 13 15 17 20 24 28 32 36 39 41 44 46 47 47 50 53 56 62 64 66 67 68 70 71 71 71 71 70 69 68 68 69 68
15 15 12 8 4 5 6 6 8 11 14 16 18 22 26 30 35 39 42 44 46 48 50 51 52 56 60 64 68 69 70 73 74 72 70 69 68 68 68 68 67 65 62 61
15 13 9 5 2 5 7 8 12 14 16 20 23 27 31 35 39 43 46 49 51 53 55 55 57 61 66 70 70 72 74 73 70 69 69 69 68 66 63 61 59 56 54 51
10 9 6 4 5 7 9 12 15 18 21 24 29 33 37 41 46 49 52 55 56 57 57 60 64 70 72 74 76 75 73 72 72 70 67 64 59 56 53 51 49 47 45 44
10 8 8 8 9 11 13 16 19 22 26 30 34 38 43 47 50 54 58 61 61 61 63 68 72 76 78 78 77 77 75 71 66 61 56 52 49 47 45 44 43 43 42 41
11 12 11 13 12 14 17 20 24 27 31 34 38 42 46 50 55 60 63 65 65 67 71 74 78 80 80 80 78 73 66 60 56 52 48 46 44 42 41 40 40 39 39 40
15 16 17 17 16 18 21 25 29 32 35 38 42 46 51 56 60 64 67 68 70 72 76 80 81 82 80 75 68 61 56 53 50 48 45 44 43 41 40 39 38 37 37 37
18 20 21 19 19 23 26 30 33 35 40 43 47 51 56 59 64 70 74 75 75 78 81 82 83 79 71 63 57 54 52 49 48 47 46 44 43 41 40 39 38 37 37 36

GFSNGP_500_spd_108.txt.gz
Wind_Speed
10 9 10 8 7 10 4 9 5 4 8 5 7 9 15 17 16 8 9 9 7 5 3 5 9 9 12 13 14 12 27 40 34 38 41 43 41 42 34 35 30 29 30 33
11 9 12 7 8 7 6 5 5 5 6 9 8 12 7 10 14 14 10 9 1 3 3 6 9 7 11 13 13 19 20 22 37 25 26 37 30 31 31 30 30 30 31 29
10 8 13 8 6 9 7 7 2 4 1 2 6 5 7 7 8 8 6 4 1 2 6 6 10 10 10 9 14 12 10 9 18 28 29 30 32 31 33 31 29 29 31 31
14 13 13 6 9 8 10 9 2 1 5 3 2 4 5 5 7 5 4 5 5 4 5 7 8 10 11 10 11 14 18 25 26 21 23 26 32 32 33 31 31 30 31 27
15 15 11 10 10 6 6 10 2 5 3 2 4 4 5 5 6 6 5 5 5 6 6 7 7 10 10 10 12 15 19 22 24 27 23 19 25 31 33 35 35 35 34 33
13 12 12 11 11 11 13 11 9 6 3 2 3 4 4 5 5 5 5 5 5 6 7 9 8 8 10 10 12 14 19 21 23 26 31 31 26 30 35 36 38 40 39 39
16 16 12 14 15 13 13 10 8 6 5 4 2 4 6 7 7 7 7 8 7 7 8 10 11 12 12 13 14 15 17 19 20 24 28 32 35 37 37 39 37 41 42 43
9 15 14 12 10 8 9 8 7 6 5 4 10 9 7 8 9 10 10 9 9 11 12 12 13 13 14 15 16 18 19 20 20 23 24 27 31 35 38 39 39 41 44 44
8 11 11 7 7 6 7 6 4 3 4 6 8 10 9 9 9 10 10 9 9 9 12 14 14 14 16 17 18 19 19 20 22 22 23 23 27 31 36 40 41 41 43 44
11 15 11 10 9 6 4 2 2 3 4 5 7 8 9 8 10 11 12 11 10 9 7 8 11 12 14 16 16 17 17 17 19 22 24 25 27 27 31 35 39 43 45 47
12 13 14 11 8 5 5 5 4 4 4 4 4 5 7 8 7 7 8 8 7 7 7 8 8 9 10 11 12 13 14 15 16 20 23 25 27 29 29 31 32 35 41 50
16 15 13 10 9 8 4 5 6 4 4 3 3 3 2 4 7 5 3 5 7 7 8 9 10 11 11 13 14 16 17 18 19 20 20 21 23 24 26 28 31 34 37 37
16 16 13 10 9 5 6 8 8 8 8 5 5 5 5 4 4 2 3 3 3 5 7 9 11 14 16 18 20 22 23 25 27 28 28 29 30 30 30 32 32 33 34 35
15 13 9 6 3 5 7 9 10 9 10 8 5 4 3 0 1 3 3 4 6 8 11 14 17 19 21 23 24 25 27 29 31 32 34 35 37 38 39 40 40 41 42 43
10 10 4 1 2 3 8 7 5 4 5 5 4 4 3 3 4 4 5 5 6 10 14 17 20 23 25 28 30 32 35 35 36 38 39 40 40 41 43 44 44 44 45 46
8 9 5 5 5 7 7 6 5 5 4 5 6 6 5 4 6 6 7 9 14 18 21 23 26 29 32 34 36 38 39 41 44 47 48 48 49 51 51 51 51 53 53 53
13 12 11 10 9 10 13 11 8 6 6 6 6 7 6 6 7 8 12 16 21 24 27 31 33 34 38 40 43 44 46 48 50 52 53 55 57 58 59 59 59 60 60 61
19 19 17 14 13 14 13 11 8 8 8 7 8 7 8 10 11 15 20 24 28 31 33 38 41 43 44 46 49 51 52 54 57 58 60 63 65 67 67 68 68 69 70 71
16 16 18 18 17 16 12 10 10 9 9 9 10 11 14 15 18 21 25 29 32 35 39 42 45 47 49 51 54 55 56 59 62 64 67 70 73 74 75 78 79 80 79 78
18 18 18 18 18 15 13 12 10 10 10 12 13 14 16 19 22 26 29 33 37 41 45 49 49 51 53 55 57 58 61 64 68 72 75 77 79 81 81 81 80 79 79 78
14 18 18 16 16 14 11 10 10 10 11 13 15 16 19 22 26 30 35 39 44 48 51 53 56 57 59 60 61 64 68 72 76 79 82 84 84 81 78 75 72 70 68 66
18 17 15 13 10 8 8 10 12 12 13 15 17 20 24 27 32 36 40 45 48 50 54 57 61 63 63 64 67 72 76 80 84 85 83 78 72 67 62 59 56 54 53 52
14 15 13 11 9 7 9 12 14 14 15 18 21 25 29 33 37 41 45 48 52 55 61 66 69 71 71 73 78 82 85 87 84 76 67 60 56 52 50 48 46 45 44 44
12 13 12 11 11 11 12 13 15 16 18 22 26 31 34 38 42 45 50 54 59 64 67 71 75 75 77 82 85 88 87 78 67 58 53 51 49 47 45 43 42 42 41 39
14 14 14 14 15 15 16 17 18 21 23 27 31 35 39 44 48 51 55 60 65 70 74 78 79 81 84 87 89 83 71 61 56 54 54 52 49 46 44 42 41 40 39 39
18 17 18 19 18 19 21 22 23 26 29 32 36 41 45 49 53 57 62 67 72 75 80 81 83 86 89 89 79 67 59 56 56 55 54 52 51 50 49 46 44 42 40 39
23 23 23 22 22 23 26 27 28 30 33 37 41 45 50 54 58 63 68 73 76 81 83 84 87 90 88 76 65 60 58 57 58 58 57 56 56 55 54 53 50 47 43 41

GFSNGP_500_spd_111.txt.gz
Wind_Speed
9 9 12 11 13 12 7 10 5 2 3 5 9 13 8 16 18 11 16 14 15 11 7 3 3 5 4 4 16 7 18 22 23 31 38 41 44 45 42 40 41 42 45 48
11 13 7 14 12 4 12 8 4 4 2 2 2 3 8 11 13 13 14 14 8 7 4 5 2 7 4 4 6 20 17 24 33 26 25 34 38 42 47 44 43 42 44 44
13 9 10 6 1 6 10 7 3 3 3 3 4 5 7 10 12 12 9 7 9 6 3 2 3 5 8 5 5 8 9 5 23 32 29 28 31 36 42 40 45 42 47 32
15 13 13 8 4 9 11 4 4 5 6 6 4 5 7 7 8 7 6 6 4 4 5 4 3 2 4 6 1 8 10 12 24 15 27 36 35 33 32 28 26 27 24 27
16 15 15 9 4 4 7 8 6 7 6 5 6 5 5 5 5 4 5 5 5 5 4 3 2 0 3 3 6 9 8 8 9 6 16 22 18 19 26 24 32 30 26 29
15 17 15 10 7 8 6 12 7 8 6 6 7 5 3 4 5 5 5 4 5 4 5 4 4 3 2 4 5 7 9 12 11 12 14 15 15 15 16 24 28 27 32 34
15 9 13 11 10 10 13 12 10 9 8 7 6 4 1 2 3 4 4 4 4 5 6 6 7 6 5 5 6 8 11 13 12 13 16 18 23 24 29 29 21 31 30 34
18 16 14 15 14 14 12 12 12 8 7 5 4 2 1 1 3 4 4 4 5 6 8 8 8 9 9 10 10 9 9 12 14 15 17 20 23 26 31 34 37 38 41 45
17 17 15 13 12 13 12 11 9 7 5 3 0 3 4 5 6 5 5 5 5 5 6 8 8 7 8 9 11 11 10 11 12 14 15 16 20 24 26 31 35 39 42 46
16 19 13 11 10 12 11 9 8 6 1 1 1 3 4 4 6 8 8 7 6 6 5 6 6 7 8 8 8 10 10 10 11 13 14 16 17 18 21 23 26 29 35 39
13 16 12 11 12 10 11 8 7 4 2 1 1 1 1 3 4 3 2 3 4 3 3 4 5 6 7 9 10 11 12 12 14 15 15 17 18 19 20 21 23 26 30 33
14 15 15 14 12 10 10 7 4 2 4 4 5 4 2 2 2 1 1 1 1 1 0 2 4 6 8 11 13 15 17 19 21 23 24 25 26 27 28 28 28 29 30 31
17 15 16 15 14 14 8 4 1 5 7 7 6 7 7 6 5 3 2 2 2 2 4 5 7 9 12 14 17 19 22 24 25 27 29 32 34 35 36 37 37 38 38 39
19 16 15 16 17 13 8 3 4 8 8 9 8 7 6 7 6 5 4 4 4 4 6 10 14 17 19 21 23 25 27 29 31 33 34 37 39 41 43 44 45 45 45 46
18 18 16 13 13 10 6 3 5 6 6 7 7 6 7 6 6 6 5 5 6 8 13 17 18 20 23 26 30 33 35 36 37 39 41 43 46 48 49 49 50 50 50 51
16 15 12 8 8 8 5 4 4 5 6 6 7 8 7 7 7 8 7 6 9 14 18 21 23 25 30 34 37 39 40 41 44 46 48 52 55 58 60 62 63 63 63 64
11 8 9 7 6 7 7 8 8 8 9 8 9 8 8 9 10 10 9 12 16 20 24 26 28 32 36 41 45 45 45 47 49 52 54 57 60 63 66 68 70 72 73 74
14 14 14 12 11 10 11 12 12 12 12 10 10 11 11 11 12 13 15 19 22 26 29 32 35 39 43 47 48 50 51 53 55 58 61 63 67 70 73 74 76 78 80 81
18 18 18 17 15 15 15 13 14 15 13 11 12 12 12 14 15 17 20 23 27 30 33 37 40 45 48 50 52 55 58 60 62 64 67 71 75 77 80 82 83 85 87 88
18 17 17 18 18 18 16 14 15 15 14 14 13 13 15 16 17 20 23 27 31 34 38 42 46 49 52 54 59 62 66 67 69 71 74 78 81 84 88 91 92 89 84 81
16 16 17 18 18 17 16 15 17 17 15 13 13 14 16 18 21 24 28 31 34 38 42 47 50 54 57 62 67 70 72 73 75 78 82 86 92 92 85 76 68 62 58 57
14 14 15 17 18 17 16 17 16 15 15 15 15 16 18 21 24 28 32 36 40 44 48 52 57 61 65 68 72 75 78 79 83 87 92 91 80 69 61 55 53 52 52 51
15 16 16 16 16 16 15 13 12 14 16 17 18 20 23 25 29 33 37 41 46 50 54 58 63 67 71 75 80 82 84 87 91 94 84 72 61 55 52 51 52 51 50 48
12 11 12 12 13 13 12 11 13 14 17 19 22 25 27 30 33 37 41 46 51 56 60 65 69 74 77 82 86 87 90 95 91 78 66 58 56 54 55 55 53 52 51 49
11 11 12 14 14 14 14 15 17 19 22 24 27 30 32 35 39 42 47 52 56 61 66 70 75 79 83 87 89 91 95 87 74 63 60 59 58 58 57 56 55 54 53 51
14 15 15 17 18 17 19 21 24 25 27 29 32 34 36 40 43 48 52 57 62 66 71 75 79 83 88 89 92 94 84 71 64 63 62 61 60 59 58 57 57 55 54 52
19 20 22 22 23 23 25 28 29 30 31 34 36 39 41 44 48 53 57 62 66 71 75 79 83 87 88 92 92 82 70 65 65 63 62 61 60 59 59 58 56 55 53 50

GFSNGP_500_spd_114.txt.gz
Wind_Speed
8 12 14 15 12 15 17 16 10 6 5 6 10 14 10 10 11 11 9 12 16 9 7 9 6 8 12 8 6 13 20 17 22 32 36 40 43 46 48 49 46 43 42 43
10 11 14 11 14 15 18 15 7 5 6 3 8 3 6 10 10 11 12 11 12 9 7 6 10 6 7 5 2 6 15 14 18 17 30 33 37 39 42 46 48 47 44 40
15 12 11 13 14 11 12 10 7 5 4 6 2 5 5 6 9 11 7 9 10 4 3 2 3 6 7 6 3 3 14 10 7 24 21 28 28 29 33 38 45 44 44 45
11 12 13 10 5 10 14 9 7 6 7 8 5 3 3 4 5 6 7 5 5 5 4 4 2 2 5 5 1 6 6 15 4 23 27 20 29 27 34 31 34 34 41 46
14 15 12 8 2 5 9 9 7 7 7 6 5 4 3 4 4 4 4 4 4 4 3 3 4 1 3 4 6 4 8 5 8 11 6 24 30 27 36 41 49 35 42 41
15 14 16 12 8 7 7 12 10 10 8 6 4 4 4 3 3 4 4 4 3 3 4 4 3 3 4 5 6 7 6 8 9 8 15 12 7 11 30 27 31 23 28 20
13 16 17 14 12 8 10 12 12 10 8 7 5 4 2 1 3 4 3 4 5 5 4 4 4 3 3 5 6 7 9 10 11 12 12 6 12 13 16 20 18 23 26 25
15 16 12 13 11 11 12 16 12 12 10 8 7 6 3 1 1 1 3 4 5 7 6 6 6 6 4 4 4 6 7 8 8 9 13 16 12 16 19 21 23 24 24 33
19 19 16 14 14 14 15 13 13 12 8 6 3 3 3 2 2 1 1 2 2 3 4 5 5 5 6 7 7 7 6 6 7 7 7 10 12 16 20 23 26 29 30 33
16 18 17 17 16 19 15 15 13 9 6 4 2 4 4 3 2 3 2 2 1 2 2 2 4 5 5 6 7 7 7 7 8 9 10 11 11 12 14 17 20 24 29 31
21 20 20 17 15 15 16 14 13 9 6 3 2 2 3 3 3 3 2 3 3 2 2 1 1 2 3 5 7 9 11 13 14 16 18 19 20 19 20 21 21 23 24 27
17 25 22 18 16 15 16 14 12 9 6 5 7 6 4 4 4 5 5 6 5 5 5 3 3 4 7 9 11 14 17 19 21 22 23 24 26 28 30 30 31 31 33 34
17 16 18 19 18 18 17 14 11 8 6 8 7 7 8 8 9 8 8 7 6 5 5 3 5 7 10 14 17 18 20 23 26 27 29 30 31 32 33 34 35 37 38 39
22 18 18 21 22 22 17 13 8 5 7 7 8 10 10 11 11 10 9 9 8 7 5 7 10 12 14 16 18 22 25 27 29 31 32 34 36 39 41 41 43 45 47 47
23 22 19 19 22 20 18 13 7 4 7 8 8 8 9 11 11 10 10 10 9 8 9 12 15 16 17 20 24 28 33 36 37 37 39 41 42 45 47 50 52 55 56 57
25 23 21 20 20 19 16 11 7 6 7 7 8 9 9 9 9 10 10 10 11 11 14 17 19 21 23 26 30 35 40 43 43 44 46 49 51 54 57 60 62 64 65 68
20 21 20 17 17 19 14 12 10 8 8 8 7 9 10 10 10 11 12 14 15 17 19 22 24 27 30 33 37 41 44 45 47 50 53 55 57 61 64 66 68 71 74 78
23 22 18 15 14 14 15 14 12 12 11 10 10 11 12 12 13 14 16 17 19 21 24 27 30 33 35 38 42 46 49 52 54 56 59 62 65 68 70 72 76 81 84 85
22 19 17 15 14 15 16 14 16 15 12 10 12 13 15 15 16 17 18 19 22 25 28 32 35 37 40 44 48 51 55 58 61 64 67 71 72 75 78 83 86 86 89 93
18 18 19 21 19 18 17 17 16 14 12 12 13 16 17 17 18 19 21 23 25 29 32 35 38 42 46 50 54 57 61 64 68 72 74 77 79 83 87 89 92 94 86 75
22 23 23 21 20 19 19 18 15 14 12 12 15 19 19 20 21 22 24 26 30 33 36 40 43 47 51 56 60 64 67 71 75 79 81 83 87 90 93 93 81 68 62 58
19 20 20 19 18 19 19 17 15 13 13 15 19 21 21 23 24 26 28 31 33 37 40 44 48 52 57 61 65 69 74 78 82 84 86 89 92 93 82 70 63 61 60 58
16 17 18 19 20 20 19 16 15 15 17 19 21 22 23 26 28 30 32 35 38 41 45 49 54 58 62 66 70 75 79 83 86 88 91 95 89 75 68 65 63 61 59 59
14 18 18 19 16 13 13 13 14 16 18 19 21 23 26 29 32 35 37 40 43 46 50 54 58 62 67 71 75 79 84 87 88 92 94 83 72 68 66 64 62 61 59 58
15 13 12 12 12 12 14 15 17 19 21 23 25 27 30 33 36 39 41 44 47 51 55 58 62 67 71 75 79 84 86 88 92 91 79 71 69 67 65 64 61 59 58 57
9 9 10 11 13 15 16 18 21 23 25 28 31 33 36 38 41 43 45 48 51 55 58 62 66 70 74 78 83 85 87 91 87 76 70 68 67 65 63 61 60 59 58 56
12 13 14 16 18 19 21 24 26 28 30 33 36 38 40 41 43 46 48 51 54 58 61 64 69 73 77 81 83 86 88 84 74 68 67 65 64 62 61 60 59 58 56 56

GFSNGP_500_spd_117.txt.gz
Wind_Speed
12 13 17 21 17 15 15 16 17 18 18 14 10 12 9 5 4 6 10 4 10 12 5 5 7 12 9 9 15 7 3 25 13 20 19 24 29 29 33 35 36 38 40 41
9 10 11 12 15 18 17 18 17 19 13 10 8 3 1 5 4 8 6 5 10 10 5 5 6 6 8 7 10 15 13 9 14 13 17 23 26 30 32 35 37 41 42 43
11 12 13 13 15 21 18 19 15 9 7 6 5 2 2 2 3 5 7 8 8 5 3 1 2 5 8 7 4 8 10 6 8 9 19 22 27 29 32 35 38 40 41 40
16 15 14 15 15 13 11 9 9 8 7 8 6 2 1 1 1 1 2 3 4 3 3 3 3 3 6 7 11 11 13 3 1 1 4 15 28 37 34 37 35 41 44 43
11 10 14 12 7 2 2 4 7 8 7 6 3 3 2 1 1 2 3 3 4 4 3 3 3 3 4 6 9 12 13 9 4 5 2 3 11 43 34 52 39 48 41 46
6 10 13 11 10 6 7 7 11 9 6 5 4 4 3 2 2 3 3 4 4 4 4 4 5 5 6 5 7 10 11 12 13 10 7 8 4 16 11 17 37 43 31 36
12 11 15 14 13 10 10 11 10 10 7 6 5 4 3 2 2 1 2 3 3 4 5 5 6 6 7 7 7 7 8 9 9 13 15 13 6 11 7 10 12 12 17 25
20 14 17 17 16 13 11 10 12 10 8 6 5 4 4 1 2 2 3 5 5 5 4 5 5 5 5 6 7 7 6 6 5 6 8 12 17 18 15 13 16 16 20 20
20 18 18 16 14 12 13 11 14 12 10 8 6 5 5 2 1 3 4 4 4 5 5 5 5 6 5 5 5 6 7 7 7 7 7 8 7 9 13 16 18 19 21 23
25 22 23 20 15 13 15 17 14 13 11 8 6 6 5 4 3 0 1 2 4 3 3 4 4 4 5 5 5 6 7 8 10 10 10 10 10 12 13 14 16 19 20 21
21 20 22 21 18 17 19 17 15 14 12 10 8 5 3 2 2 2 3 4 5 5 5 5 5 5 6 7 9 11 12 14 16 17 18 19 20 20 21 22 22 23 25 28
15 21 21 20 20 23 19 16 16 15 12 9 7 6 5 4 5 5 5 7 9 9 9 8 7 8 8 11 12 14 17 19 21 22 24 25 25 25 25 26 27 29 30 31
18 19 23 22 25 21 19 19 18 15 12 8 6 7 8 6 7 9 9 9 10 10 9 9 10 10 12 13 15 18 20 20 23 25 28 30 31 31 32 32 34 36 36 38
22 20 27 28 25 22 20 20 18 14 12 10 10 10 9 10 12 11 11 11 10 11 10 10 11 13 15 16 18 20 23 26 30 32 33 34 36 37 39 41 43 45 46 48
24 24 22 26 24 22 22 21 19 16 12 10 9 10 10 11 12 13 13 12 11 12 12 13 13 15 18 20 22 24 26 29 34 37 39 42 44 46 47 49 50 51 53 57
18 28 26 26 27 23 24 23 20 15 10 8 10 11 10 11 12 12 10 12 13 15 15 16 18 20 22 24 26 28 31 35 38 42 45 48 51 53 55 57 60 62 63 67
18 23 29 27 25 24 24 23 21 15 11 10 11 12 12 12 10 11 13 15 16 18 20 22 24 26 27 29 32 35 38 41 43 48 52 54 58 60 62 66 67 68 72 77
19 22 25 25 24 25 24 22 20 16 13 13 15 14 13 12 11 14 16 17 19 21 23 24 27 29 32 35 37 40 44 46 49 54 57 60 63 65 68 69 71 75 80 84
20 25 24 24 23 22 22 21 20 19 17 18 18 16 14 13 14 17 19 21 22 23 25 28 30 33 36 39 42 45 48 51 55 59 62 66 68 71 73 76 79 83 89 90
21 26 23 22 20 20 19 19 19 20 19 19 18 16 15 14 16 19 22 23 24 27 29 32 35 37 40 43 46 50 53 55 60 64 67 70 74 77 79 82 87 89 90 92
20 25 24 20 17 15 17 17 19 21 19 19 19 17 16 16 18 21 24 27 29 31 34 36 39 42 44 47 50 54 56 60 65 68 72 76 80 81 84 88 89 91 83 71
17 19 20 20 20 21 22 22 22 22 21 20 19 18 18 18 20 24 28 30 33 35 38 41 43 46 48 51 54 57 61 65 69 73 78 81 82 85 88 90 87 75 67 65
19 21 22 23 22 22 22 23 24 23 21 20 20 19 19 21 24 27 30 33 35 38 41 44 47 49 52 55 58 61 65 70 74 78 82 83 86 89 90 83 71 65 64 65
16 19 20 20 20 21 22 23 23 21 20 19 19 20 22 24 27 31 33 36 39 43 46 48 51 53 56 59 62 65 70 74 78 81 83 86 89 88 79 70 65 64 64 65
14 17 18 19 20 21 23 21 18 18 19 20 22 24 26 29 32 34 37 40 44 48 49 52 55 57 60 63 66 70 74 78 81 83 85 88 86 77 69 65 64 65 65 64
13 15 18 19 19 18 16 16 17 18 20 23 25 28 31 34 37 40 43 46 48 51 53 55 58 61 64 67 70 74 77 80 82 84 86 83 75 68 65 64 64 64 64 62
13 13 13 13 14 14 15 16 19 22 24 27 30 34 37 40 42 44 46 48 50 53 55 58 60 63 67 69 73 76 79 81 83 85 81 72 67 65 64 63 63 63 61 60

GFSNGP_500_spd_120.txt.gz
Wind_Speed
21 22 25 23 26 26 22 16 19 17 23 20 22 21 17 9 4 7 9 11 13 2 6 2 2 6 7 8 7 15 17 13 18 22 20 14 10 13 11 14 22 18 30 38
19 16 15 16 17 19 19 20 20 20 24 21 20 14 5 3 6 6 5 9 10 10 6 4 4 7 9 10 11 11 16 18 10 15 21 15 13 11 10 9 3 22 21 23
13 15 15 15 13 17 19 19 20 23 19 10 9 6 2 4 4 3 5 6 9 6 6 6 6 7 9 11 14 13 15 12 12 7 5 18 10 12 15 18 19 23 25 26
12 15 17 15 12 15 19 17 15 10 8 9 7 7 2 4 4 4 5 4 4 7 5 5 6 5 9 12 14 15 17 14 10 12 6 6 13 20 17 16 21 25 29 32
13 13 14 10 12 13 9 5 5 8 9 10 7 4 3 4 4 3 1 2 2 4 5 6 5 6 8 10 11 13 17 17 18 11 3 14 11 11 27 32 25 23 26 33
11 9 11 10 13 13 11 8 6 7 10 4 2 2 3 4 3 1 1 1 2 4 6 4 7 7 7 9 13 15 14 14 14 17 13 5 1 9 13 11 11 21 21 35
14 14 15 14 14 14 12 11 9 9 8 4 4 3 1 1 1 2 3 4 6 5 6 9 8 9 10 10 11 9 10 12 13 14 16 18 17 14 10 8 4 13 6 8
20 19 18 15 15 14 14 13 10 8 6 5 4 3 2 2 2 4 5 4 4 6 7 7 7 8 10 11 9 11 12 12 13 14 15 16 16 17 18 18 16 15 14 13
17 20 17 17 16 14 13 12 10 9 7 6 6 4 3 3 3 5 6 6 6 7 8 6 7 8 7 8 9 10 10 11 12 13 13 14 15 15 15 15 17 19 22 23
25 23 22 20 19 15 13 12 12 12 9 7 6 5 5 4 2 4 5 5 6 6 6 6 6 6 7 9 10 12 13 14 15 16 17 18 18 18 19 19 20 22 22 21
23 23 24 24 23 21 15 15 15 13 12 11 9 8 6 4 2 2 1 3 4 6 7 7 8 8 9 8 9 12 14 15 16 18 19 21 23 24 24 25 25 26 27 27
22 24 21 21 23 22 18 17 18 16 15 14 12 9 7 5 4 3 3 5 6 7 9 9 8 9 10 11 12 12 13 16 19 23 25 27 28 26 26 27 30 30 31 32
21 22 21 20 21 21 20 21 21 19 17 16 13 10 9 7 6 7 6 6 8 10 12 11 10 12 13 15 16 18 19 20 21 21 24 27 29 30 33 33 32 34 36 36
20 20 22 19 23 22 22 23 21 19 19 17 14 12 9 9 10 9 8 11 12 12 12 13 14 14 16 17 19 21 23 25 26 27 30 32 33 36 39 41 42 43 44 46
22 20 22 20 25 24 24 21 21 22 21 18 15 14 12 11 11 10 12 13 13 13 13 14 16 18 19 20 22 24 25 27 29 33 36 39 42 44 46 48 49 50 52 55
24 18 22 24 27 29 26 21 22 21 21 19 17 14 11 10 12 12 11 11 12 13 15 17 20 23 24 25 27 29 32 33 35 38 41 44 47 49 52 54 56 56 59 62
24 21 19 26 26 29 26 25 25 22 21 19 16 12 12 13 12 12 12 13 15 17 19 22 24 26 29 30 32 35 36 38 40 43 46 49 52 54 56 59 62 65 68 70
21 20 16 22 28 28 25 24 24 23 23 20 16 15 15 13 13 14 15 17 18 19 22 25 27 28 30 33 35 38 40 42 45 47 49 53 55 58 61 64 68 72 75 78
21 16 15 17 23 25 25 24 23 23 23 22 19 18 17 17 18 19 19 20 21 22 25 28 30 32 34 36 39 41 44 47 49 51 53 56 58 62 66 70 73 76 79 82
22 16 15 19 20 24 24 24 25 24 23 23 22 20 20 21 21 21 21 22 23 25 27 30 32 35 38 41 43 45 47 49 51 54 56 59 63 68 72 76 79 82 84 87
19 16 16 23 19 22 22 24 24 24 24 24 23 22 21 23 24 23 23 25 25 27 30 32 34 37 39 42 45 48 50 52 55 58 61 64 68 73 77 80 83 86 88 91
16 15 15 20 20 20 19 21 21 21 23 23 23 23 24 25 25 26 25 27 28 29 31 34 37 41 44 48 51 53 55 57 60 63 66 70 73 77 81 85 87 89 90 90
15 14 14 15 17 18 17 17 19 20 21 22 25 26 26 26 27 26 28 28 30 33 35 39 42 45 49 53 55 57 59 61 64 68 71 74 78 81 85 86 88 90 87 79
16 17 18 17 17 17 17 19 20 22 23 25 27 27 27 27 27 26 29 32 35 38 40 43 47 50 53 55 57 59 62 65 68 72 74 77 81 84 85 87 88 84 74 68
11 13 15 17 18 19 20 21 22 23 24 27 26 25 25 27 27 29 32 36 40 43 45 48 51 54 56 58 60 63 65 68 71 74 77 80 82 84 86 86 79 70 66 65
7 7 9 13 17 19 21 22 23 24 24 23 23 25 26 28 30 34 38 42 44 46 49 51 53 56 58 61 63 65 68 70 73 76 79 81 83 85 83 75 68 64 64 64
12 11 11 12 11 13 15 16 17 18 20 22 25 26 28 32 35 39 41 44 46 50 52 54 56 57 60 62 64 66 69 71 74 77 79 81 82 79 71 65 63 63 64 63

GFSNGP_500_spd_126.txt.gz
Wind_Speed
38 38 40 42 40 31 34 30 35 23 24 22 20 22 23 22 21 23 16 14 11 6 8 6 4 8 7 11 15 15 15 16 13 6 8 17 12 15 12 9 13 18 17 20
36 38 40 38 28 29 28 24 25 18 16 20 23 23 22 23 16 11 10 8 7 4 8 5 6 8 6 10 12 16 19 20 15 9 2 4 7 10 5 12 13 19 12 18
40 35 38 27 24 28 22 22 20 18 22 25 24 22 24 15 11 8 4 3 4 5 4 4 6 7 7 6 8 17 20 20 16 17 12 6 8 8 16 14 13 15 13 12
38 34 27 21 21 21 20 16 15 18 20 19 17 16 14 11 8 7 5 2 4 4 5 2 2 3 6 11 18 20 21 21 19 14 17 17 14 8 8 12 17 17 11 14
31 26 24 18 17 16 12 11 13 14 13 10 10 12 11 10 7 6 5 4 5 4 2 5 7 9 14 18 20 22 22 24 26 26 27 26 19 18 16 15 7 10 21 16
25 24 21 14 13 10 10 11 13 13 10 11 12 11 11 9 6 5 4 6 6 6 9 11 12 13 14 17 17 17 17 19 21 23 24 24 25 27 29 29 24 19 14 8
22 25 19 14 14 16 15 14 12 12 11 9 10 10 9 8 6 5 5 6 8 11 12 11 12 12 12 13 14 10 11 12 15 17 17 17 18 19 19 21 23 24 26 27
20 22 17 14 15 15 17 15 13 12 11 10 11 10 9 8 8 8 9 11 12 13 11 9 9 8 7 7 7 6 8 9 11 12 13 16 17 18 19 18 18 20 21 21
21 22 20 17 18 15 16 15 15 12 11 13 13 12 11 11 9 10 12 13 14 13 10 8 6 5 3 2 2 4 6 8 9 12 15 17 18 20 21 22 22 22 22 23
27 21 22 20 19 20 18 16 14 13 12 14 13 14 14 13 12 13 14 14 14 13 11 8 6 4 3 3 5 8 11 13 14 16 17 17 18 18 19 21 22 24 25 25
30 29 29 24 25 26 22 19 17 17 15 15 14 14 15 14 15 17 17 17 15 13 11 9 8 7 6 7 9 11 13 14 15 16 18 19 20 21 21 21 22 23 24 24
31 32 28 25 23 24 28 24 22 21 19 18 18 17 17 17 17 19 19 17 16 14 13 11 10 10 10 11 12 14 15 17 19 21 21 22 22 23 25 26 27 28 29 30
32 32 32 28 27 25 26 27 24 24 23 22 22 20 20 20 20 20 19 18 16 15 14 14 13 14 14 15 16 18 19 21 23 24 26 28 29 30 31 32 34 35 34 34
32 33 31 31 27 25 25 27 23 22 26 23 23 23 22 22 21 21 19 18 17 16 16 17 17 18 17 19 20 22 24 25 26 29 33 35 36 38 39 40 40 42 42 42
32 31 32 30 29 26 25 26 22 24 25 23 25 24 24 24 23 23 22 20 19 19 17 19 19 20 21 22 23 25 26 27 30 32 34 36 38 40 43 45 46 47 49 49
26 26 25 26 26 26 25 25 26 25 24 25 25 26 25 23 24 24 22 21 22 21 21 20 21 23 23 25 27 27 28 31 33 35 38 40 42 43 43 44 46 49 51 52
15 16 18 18 21 23 21 21 25 25 25 25 25 24 24 24 24 25 23 23 23 23 24 23 24 25 27 28 28 30 31 34 36 37 40 42 42 42 45 46 47 48 51 53
16 16 15 15 15 20 17 21 24 25 26 26 25 25 24 24 25 24 24 24 25 25 25 26 27 28 29 31 31 33 35 37 39 41 42 43 46 47 49 53 55 56 58 58
17 15 13 13 14 17 17 24 24 23 23 25 25 25 25 24 24 25 25 25 26 26 26 29 29 30 32 34 34 36 39 40 41 41 45 48 50 53 56 58 61 63 64 64
17 16 13 15 12 15 18 23 24 24 25 24 23 24 24 24 24 25 25 26 27 28 29 30 32 34 34 36 37 40 42 42 43 46 50 54 58 60 62 64 66 67 68 68
16 15 13 14 13 14 18 21 24 25 23 23 24 24 24 24 24 25 25 26 28 30 31 33 33 35 36 38 41 44 45 45 47 52 57 61 64 65 67 68 67 67 67 69
13 11 11 14 13 14 15 17 20 21 21 21 21 22 23 24 25 27 27 29 31 32 36 34 33 35 38 41 44 46 48 51 53 58 62 65 67 68 68 66 66 67 69 71
11 8 9 12 13 14 14 14 17 19 19 20 21 22 24 25 27 29 30 32 33 34 32 32 35 38 41 44 47 50 53 55 59 62 65 66 66 65 64 65 67 70 73 76
10 8 10 11 13 15 17 19 19 20 20 20 22 23 24 25 26 28 28 29 30 30 33 36 38 40 43 46 50 53 56 58 61 63 65 64 64 64 65 68 71 74 77 79
9 8 9 11 12 14 16 17 17 17 19 20 22 24 25 25 27 29 29 29 31 32 33 36 39 43 46 49 53 55 56 59 61 61 61 62 63 65 69 72 75 77 78 78
9 7 8 9 11 13 15 17 18 19 21 23 24 24 25 25 26 27 27 27 28 31 35 39 42 46 48 51 53 55 57 59 60 61 61 63 66 69 72 74 76 77 76 73
11 10 9 10 10 11 11 12 15 18 19 17 18 18 17 18 19 21 25 28 31 34 38 41 44 47 49 52 54 55 56 58 59 60 63 66 69 71 73 74 75 72 68 65

GFSNGP_500_spd_129.txt.gz
Wind_Speed
40 41 43 41 40 41 45 43 45 32 31 24 21 20 21 23 24 23 25 19 14 12 11 5 5 3 6 11 15 16 18 18 10 3 1 5 5 10 9 4 5 11 14 19
42 42 43 42 40 42 43 37 36 31 19 22 22 22 22 22 21 22 16 13 11 10 8 2 5 8 7 6 9 9 12 19 21 19 12 8 2 4 5 8 9 11 17 17
38 42 42 40 37 39 33 28 25 24 21 21 23 22 21 22 21 15 11 10 9 9 6 2 4 4 2 8 13 17 21 18 20 20 19 17 15 12 11 9 9 11 16 10
39 40 40 37 32 27 28 21 24 17 16 19 19 16 15 17 14 13 10 10 9 11 7 9 8 7 10 12 17 19 23 26 25 27 27 22 23 22 14 13 8 11 12 12
40 38 39 30 24 21 19 17 18 16 18 17 17 15 15 15 12 11 9 11 10 8 8 10 9 12 11 12 15 17 20 20 21 23 24 25 24 24 25 24 26 23 21 14
36 37 38 20 20 16 15 15 17 17 18 18 17 16 16 11 11 11 11 11 11 12 13 12 13 11 9 8 12 15 14 14 16 18 20 20 21 21 22 23 23 24 25 25
33 33 23 16 16 18 19 19 18 17 16 17 16 14 12 11 12 10 8 9 12 14 14 14 12 10 8 5 8 10 8 9 11 13 15 15 15 17 19 20 22 23 24 24
29 24 16 14 18 22 20 21 21 19 18 16 16 13 13 12 11 9 7 12 14 15 15 14 12 9 6 3 4 4 4 7 9 11 14 15 17 18 19 20 21 22 23 24
29 22 17 16 17 24 24 22 21 20 20 17 17 15 15 14 12 11 11 13 15 17 16 14 12 9 7 5 3 3 6 8 10 10 12 15 18 21 23 24 24 23 23 23
28 19 20 20 19 20 26 24 21 20 19 18 16 16 17 16 15 15 14 15 19 18 17 15 13 12 10 9 7 7 9 11 13 14 16 19 20 20 21 23 25 27 28 28
23 25 28 26 27 26 25 26 26 23 21 21 18 18 19 18 17 17 17 19 20 20 18 17 17 15 14 13 11 11 11 14 14 15 18 19 21 23 24 25 26 28 29 31
33 32 32 30 30 29 25 25 31 29 25 23 22 20 20 20 21 21 21 21 22 21 20 20 19 18 17 16 14 14 15 17 17 19 22 24 25 27 29 32 34 34 34 36
31 32 32 31 31 32 31 26 26 29 31 28 26 24 24 22 24 23 23 23 23 24 24 23 22 20 19 19 18 19 20 22 23 25 26 28 29 31 32 34 36 38 39 40
32 33 33 33 33 33 31 29 25 27 30 29 29 27 28 27 26 26 25 26 27 27 27 25 24 23 22 23 23 25 25 26 27 28 30 31 31 33 35 36 37 39 40 40
29 32 34 35 35 34 33 30 28 28 28 28 26 28 30 29 29 29 28 30 29 29 28 27 26 25 26 26 26 27 28 29 30 31 31 33 34 37 39 40 39 40 42 43
29 32 33 33 32 30 30 29 29 27 27 27 27 30 31 30 29 29 30 31 31 30 29 28 28 28 28 29 29 30 32 34 35 35 35 36 37 39 40 40 42 44 45 47
29 26 19 20 22 22 23 25 27 24 27 27 30 32 31 29 29 29 30 31 30 31 31 30 28 29 30 31 31 32 35 36 37 39 39 40 41 44 43 44 46 48 52 55
15 16 20 21 21 20 19 19 20 20 24 29 29 30 29 28 28 29 29 29 30 31 31 31 29 30 32 33 33 35 36 38 41 42 43 45 46 46 46 48 51 54 59 62
13 17 19 20 19 18 16 18 19 19 24 27 28 27 27 27 27 27 27 28 29 31 31 30 29 31 34 35 35 36 37 41 43 45 46 48 49 50 52 54 57 60 65 69
19 20 23 20 18 18 15 18 20 19 23 25 25 26 27 28 27 27 27 27 29 31 30 30 30 32 34 36 36 37 40 43 45 46 48 51 53 55 57 60 64 68 71 71
19 19 20 18 16 18 14 16 19 21 23 25 25 25 26 26 27 27 27 28 29 31 31 30 32 33 36 37 39 42 42 44 46 48 51 53 56 59 63 66 67 69 69 67
17 16 16 13 13 14 13 14 16 20 22 24 24 24 25 25 26 26 27 28 30 32 32 33 34 37 38 39 41 41 44 46 48 51 54 57 60 63 65 66 67 67 67 66
15 13 12 10 12 14 12 13 14 15 18 21 22 23 24 25 25 26 27 29 31 32 34 34 35 36 37 37 39 42 44 48 51 53 56 60 62 65 66 66 66 66 66 68
15 11 10 10 10 13 13 14 15 15 16 18 20 21 23 25 27 27 28 29 31 31 32 32 32 33 35 37 40 44 47 49 52 56 59 62 63 64 64 65 66 67 69 72
14 13 10 10 12 13 14 15 16 19 21 22 24 25 26 28 28 28 29 30 29 29 29 29 30 32 36 39 41 45 49 52 55 58 60 61 62 63 64 66 67 70 73 75
13 13 11 8 10 14 15 16 18 20 21 22 22 23 24 24 25 26 27 27 27 25 26 29 32 35 38 41 44 49 52 55 57 58 59 61 62 65 66 68 71 73 74 74
11 13 13 12 10 10 12 14 17 19 21 23 23 24 24 25 25 24 22 22 24 26 29 32 35 38 42 45 49 53 55 56 56 58 60 62 65 67 69 71 72 73 71 68

GFSNGP_500_spd_132.txt.gz
Wind_Speed
39 39 42 40 41 42 44 42 47 43 50 27 30 33 30 25 23 24 24 24 23 16 11 11 8 7 8 10 10 10 8 12 16 17 12 11 10 8 5 7 8 6 4 5
40 42 43 41 40 42 42 42 45 48 39 26 29 29 25 26 28 26 24 22 17 13 10 10 5 10 6 2 4 5 5 19 23 23 22 21 19 18 17 12 7 5 4 8
47 47 41 38 39 40 40 42 47 41 28 24 22 21 25 26 23 22 20 17 13 12 11 10 10 10 6 10 15 16 18 21 26 28 30 31 29 27 26 18 13 10 9 9
34 32 36 38 39 36 38 41 37 29 20 18 19 20 20 18 16 18 16 15 14 14 13 11 12 10 11 11 10 12 15 18 19 21 23 24 26 26 26 25 25 27 21 14
33 36 39 36 33 38 42 30 31 21 17 17 20 21 20 19 18 18 15 16 14 14 12 9 13 15 13 8 7 9 12 14 16 17 19 21 22 22 22 24 24 22 22 24
34 38 41 34 34 37 37 23 23 18 17 18 20 20 20 19 16 13 14 16 16 16 13 16 14 14 10 7 6 6 9 10 11 14 16 17 18 18 19 20 21 23 24 25
35 38 39 31 34 33 27 19 21 19 19 20 22 20 19 17 13 13 14 14 15 15 13 16 16 13 11 8 5 3 5 4 7 8 9 11 12 14 16 18 19 21 22 22
33 33 35 31 29 25 23 23 22 19 20 21 21 20 19 18 14 13 12 13 13 13 18 19 16 14 12 10 7 4 1 4 8 10 10 11 12 14 16 17 20 21 21 22
33 35 39 34 28 21 21 20 23 23 21 22 21 21 19 17 16 14 12 11 12 17 22 18 17 16 14 11 9 8 7 7 10 11 11 13 14 17 20 22 23 24 25 26
37 36 36 29 23 23 20 21 22 22 23 23 21 20 20 17 17 16 15 13 17 22 20 20 19 17 16 14 13 13 12 12 12 14 14 13 16 19 21 22 24 26 27 28
36 31 28 24 25 25 25 25 25 24 24 26 24 22 21 20 19 19 17 18 20 23 23 22 21 19 18 17 16 16 16 16 17 18 17 18 20 23 24 25 27 28 29 29
34 28 28 28 29 31 30 30 28 26 25 28 29 25 23 21 21 21 20 21 22 24 23 23 23 21 21 21 21 20 20 21 22 22 22 24 25 25 26 28 28 28 30 31
27 28 28 29 29 33 34 32 30 27 28 29 33 32 27 25 24 24 23 24 25 26 26 25 25 24 24 24 25 25 25 25 26 27 28 28 30 29 30 30 31 33 34 35
22 26 32 36 35 36 35 34 33 31 29 29 32 32 32 28 26 27 26 26 26 26 27 27 26 26 27 28 29 29 29 28 29 31 33 33 33 33 34 34 36 38 38 39
23 26 28 30 33 34 35 35 34 33 32 31 32 31 31 28 29 30 30 29 29 29 29 29 29 29 30 30 31 32 32 32 33 34 35 37 38 39 39 40 42 44 45 45
22 24 27 29 29 28 29 29 29 31 33 33 32 28 26 27 31 30 31 31 30 30 31 31 31 31 32 33 33 34 34 34 36 38 38 39 42 43 42 44 46 48 49 50
22 24 25 25 24 26 27 29 29 27 30 31 29 26 28 30 30 30 30 30 31 31 31 32 32 33 34 35 35 35 36 37 39 40 41 42 43 44 46 48 50 51 52 54
22 20 18 19 22 25 28 28 27 23 23 24 25 28 32 29 29 30 30 30 30 31 32 32 34 35 37 36 36 37 37 38 40 41 42 44 45 47 49 51 53 54 55 57
18 17 20 23 26 29 29 27 22 19 20 22 22 26 27 27 28 28 28 28 29 30 31 32 33 36 36 37 37 37 37 37 40 42 44 47 49 50 51 54 55 56 58 61
18 20 22 26 27 29 25 21 19 18 15 16 17 22 24 25 25 25 26 27 28 29 30 31 32 34 35 36 36 36 37 39 41 44 47 48 48 50 53 55 57 59 62 64
20 20 22 25 27 24 20 16 17 14 15 14 14 20 21 21 21 24 26 27 27 28 29 31 33 34 35 36 37 37 39 41 43 45 45 45 49 51 54 57 59 62 65 68
23 25 26 23 22 17 14 13 13 13 13 14 14 17 20 22 24 25 25 25 27 29 29 31 33 35 36 38 38 38 39 42 43 42 43 47 50 53 56 59 63 66 68 68
21 23 22 20 18 17 13 13 13 13 14 15 15 17 19 22 23 24 24 26 27 28 29 31 32 34 35 36 36 38 38 38 39 42 46 49 52 56 59 63 65 65 65 66
21 22 20 18 17 15 13 15 15 14 13 15 16 18 19 20 22 24 25 26 28 29 30 32 33 34 34 34 34 35 36 38 42 45 49 52 56 59 62 63 63 64 66 69
19 19 18 16 15 15 16 15 17 16 15 17 17 19 20 22 23 24 26 27 29 29 29 31 32 31 31 32 33 35 38 42 45 49 53 57 59 61 61 62 64 67 69 71
17 16 15 15 15 14 13 14 16 17 18 19 20 21 22 23 24 26 26 26 27 28 29 29 28 29 30 32 35 39 42 46 50 53 56 59 60 61 62 64 68 69 71 73
15 15 14 14 16 16 15 14 14 16 17 19 20 22 22 23 24 24 25 26 26 26 26 27 28 31 34 36 40 43 47 51 54 56 58 59 60 62 65 67 69 71 72 70

GFSNGP_500_spd_135.txt.gz
Wind_Speed
41 40 40 37 36 37 41 41 47 36 45 40 43 43 38 35 33 29 26 29 28 25 19 16 14 9 11 15 8 8 8 14 17 17 17 20 18 17 15 12 6 7 5 3
36 36 37 34 34 39 43 44 43 44 44 42 42 38 33 30 24 26 27 23 23 19 15 13 12 11 11 8 9 14 19 23 25 28 32 32 32 33 29 24 19 18 14 9
37 37 38 37 34 37 37 38 42 43 41 39 36 29 27 23 23 23 21 18 18 15 12 12 12 13 7 9 11 13 15 15 17 19 22 23 25 28 28 27 28 29 29 28
41 40 39 38 34 33 36 37 39 40 37 37 29 24 21 22 22 21 20 19 16 14 13 13 14 15 12 7 7 6 8 11 13 16 17 19 21 22 23 23 25 25 26 26
38 36 33 27 31 33 34 34 37 37 36 29 24 20 18 21 20 19 19 17 14 14 15 15 15 16 17 10 6 5 5 8 10 11 13 15 17 17 18 20 22 22 22 24
29 33 36 33 33 34 34 34 30 33 29 23 20 19 19 21 20 17 15 13 14 16 17 16 16 16 17 10 9 7 3 4 5 7 9 11 12 13 14 15 17 18 20 20
31 35 35 30 31 32 33 35 26 25 25 25 23 22 22 21 19 15 14 15 16 17 17 16 16 22 15 13 11 9 7 3 2 5 7 8 10 10 11 12 13 16 17 19
30 34 34 31 31 31 35 35 26 22 22 22 21 20 21 21 18 15 14 14 16 16 15 12 24 22 16 15 13 12 11 9 7 8 9 9 10 10 9 10 12 13 14 17
33 31 31 32 32 35 37 31 25 20 18 19 22 22 21 21 18 15 14 14 15 16 16 17 26 21 18 16 15 15 14 13 12 13 13 14 15 14 14 15 16 18 19 21
33 28 29 33 34 36 33 28 24 22 22 20 21 23 23 21 19 17 15 15 16 16 15 23 26 20 20 18 18 18 17 17 16 16 17 19 19 19 20 21 21 21 22 23
31 27 33 35 37 33 28 25 25 25 26 25 23 23 25 24 21 19 18 17 17 17 17 27 26 22 21 20 19 19 20 20 20 21 22 23 24 23 24 24 23 23 24 25
30 29 34 37 35 28 25 27 28 30 30 29 27 26 25 27 26 23 20 19 19 19 21 31 29 24 24 23 21 21 22 23 24 25 26 27 27 28 28 27 27 28 27 28
31 31 38 35 29 28 32 32 30 33 33 32 29 29 29 29 31 28 24 22 22 23 23 27 33 29 26 26 24 24 24 25 27 29 30 31 32 32 33 33 32 33 34 36
31 36 31 25 23 26 31 34 36 36 35 34 33 32 31 32 32 32 30 26 24 24 26 28 32 30 27 28 27 27 28 28 29 32 34 35 34 35 35 36 37 38 40 41
34 25 21 21 22 24 27 31 33 33 33 34 35 36 35 35 33 32 33 28 27 28 28 29 29 31 31 29 29 29 31 31 32 35 37 37 37 38 39 40 41 42 44 45
20 19 19 21 23 23 23 23 25 27 28 31 30 33 38 37 33 34 33 30 30 30 30 30 29 29 31 32 32 32 32 33 35 37 39 39 40 41 42 43 44 46 48 49
17 18 19 18 19 21 23 25 28 31 34 33 33 32 33 35 34 32 32 30 28 29 30 30 29 29 30 31 31 32 33 35 37 39 40 42 43 44 45 45 47 49 51 52
15 15 17 20 21 22 24 28 31 34 34 33 29 27 27 30 31 32 31 29 27 28 29 28 27 28 30 31 32 33 34 38 40 41 41 43 44 45 45 46 49 51 51 53
14 17 19 20 21 23 27 30 34 32 28 24 21 21 21 25 28 30 29 27 26 26 26 25 26 28 30 30 31 34 36 39 41 41 43 45 45 44 45 47 49 50 52 54
16 19 20 20 21 25 29 31 30 23 18 19 17 17 17 18 23 25 24 23 22 22 22 24 26 28 30 30 32 34 35 38 41 41 43 43 43 44 45 47 49 51 53 55
17 19 21 23 25 27 26 27 20 14 15 15 14 14 11 15 18 20 20 20 20 20 21 23 26 27 28 30 33 35 37 39 40 41 40 42 43 44 45 47 49 52 55 58
18 19 21 23 23 24 22 22 14 14 15 13 13 12 10 13 16 18 18 18 19 22 24 25 26 27 28 29 31 34 36 37 38 39 40 41 42 44 46 49 52 56 60 64
17 18 21 23 23 22 20 19 15 14 15 15 13 13 13 13 16 18 19 20 22 23 24 26 27 28 29 30 32 34 36 36 37 39 40 41 43 45 48 53 57 61 63 65
18 19 21 21 21 20 17 17 15 15 16 15 14 15 15 17 18 19 21 22 23 24 25 26 27 29 29 30 32 34 36 37 38 38 40 43 45 49 53 58 61 63 64 66
18 19 19 19 19 17 17 17 17 18 17 15 16 16 16 17 18 20 21 22 23 25 26 27 27 28 29 31 34 35 35 36 38 40 43 46 50 54 58 60 62 64 64 66
18 18 19 19 18 16 17 17 17 16 17 17 16 17 18 20 20 21 22 24 24 25 25 25 26 29 31 32 32 34 36 38 41 44 48 52 55 58 59 61 62 64 66 68
18 18 18 19 18 17 16 17 18 19 19 18 18 18 17 18 19 21 23 24 25 26 26 27 27 28 29 32 34 37 39 42 46 50 53 55 56 57 59 62 63 65 67 68